N4ASP-13 Weather Reports


Display with metric or nautical units.
time (UTC)temp
F
wind
direction
speed
MPH
gust
MPH
rain 1hr
in
rain 24hr
in
rain mn
in
humidity
%
barometer
mb
20260905220154 83 189 1.0 3.0 0.00 0.00 0.00 67 1013.7
20260905220055 83 189 1.0 3.0 0.00 0.00 0.00 66 1013.7
20260905215948 83 193 1.0 3.0 0.00 0.00 0.00 66 1013.8
20260905215848 83 301 1.0 3.0 0.00 0.00 0.00 66 1013.8
20260905215748 83 301 1.0 3.0 0.00 0.00 0.00 66 1013.8
20260905215648 83 300 1.0 3.0 0.00 0.00 0.00 65 1013.8
20260905215549 83 298 1.0 3.0 0.00 0.00 0.00 66 1013.8
20260905215446 83 346 1.0 3.0 0.00 0.00 0.00 65 1013.9
20260905215347 83 346 1.0 3.0 0.00 0.00 0.00 65 1013.8
20260905215246 83 304 1.0 3.0 0.00 0.00 0.00 65 1013.8
20260905215145 83 182 1.0 2.0 0.00 0.00 0.00 66 1013.9
20260905215043 83 181 1.0 3.0 0.00 0.00 0.00 66 1013.9
20260905214935 83 248 1.0 4.0 0.00 0.00 0.00 66 1014.0
20260905214833 83 249 1.0 4.0 0.00 0.00 0.00 67 1014.0
20260905214732 83 247 1.0 4.0 0.00 0.00 0.00 66 1014.0
20260905214631 83 247 1.0 4.0 0.00 0.00 0.00 66 1014.0
20260905214533 83 248 1.0 4.0 0.00 0.00 0.00 67 1014.0
20260905214428 83 236 1.0 4.0 0.00 0.00 0.00 67 1014.0
20260905214329 83 238 1.0 4.0 0.00 0.00 0.00 65 1014.0
20260905214229 83 239 1.0 4.0 0.00 0.00 0.00 65 1014.0
20260905214128 83 234 1.0 4.0 0.00 0.00 0.00 65 1014.0
20260905214027 83 81 1.0 3.0 0.00 0.00 0.00 66 1014.1
20260905213923 83 197 1.0 4.0 0.00 0.00 0.00 65 1014.1
20260905213819 83 254 1.0 4.0 0.00 0.00 0.00 66 1014.1
20260905213721 83 155 1.0 4.0 0.00 0.00 0.00 66 1014.1
20260905213621 83 159 1.0 4.0 0.00 0.00 0.00 65 1014.1
20260905213521 83 150 1.0 4.0 0.00 0.00 0.00 65 1014.0
20260905213414 83 99 1.0 4.0 0.00 0.00 0.00 67 1014.1
20260905213312 83 119 2.0 4.0 0.00 0.00 0.00 67 1014.1
20260905213212 83 116 2.0 4.0 0.00 0.00 0.00 65 1014.0
20260905213113 83 151 2.0 4.0 0.00 0.00 0.00 65 1014.0
20260905213011 83 148 2.0 4.0 0.00 0.00 0.00 66 1014.0
20260905212904 83 193 2.0 4.0 0.00 0.00 0.00 66 1014.1
20260905212804 82 151 2.0 4.0 0.00 0.00 0.00 67 1014.0
20260905212704 82 112 1.0 4.0 0.00 0.00 0.00 66 1014.0
20260905212604 82 126 1.0 4.0 0.00 0.00 0.00 67 1014.1
20260905212505 82 333 1.0 4.0 0.00 0.00 0.00 69 1014.0
20260905212400 82 320 1.0 4.0 0.00 0.00 0.00 67 1014.0
20260905212301 82 316 1.0 4.0 0.00 0.00 0.00 66 1013.9
20260905212200 82 155 1.0 4.0 0.00 0.00 0.00 69 1014.0
20260905212059 82 165 1.0 4.0 0.00 0.00 0.00 70 1014.0
20260905211959 82 165 1.0 4.0 0.00 0.00 0.00 69 1013.8
20260905211849 82 162 2.0 5.0 0.00 0.00 0.00 68 1013.9
20260905211749 82 314 2.0 5.0 0.00 0.00 0.00 68 1013.9
20260905211649 81 30 2.0 5.0 0.00 0.00 0.00 69 1013.8
20260905211548 81 312 2.0 5.0 0.00 0.00 0.00 70 1013.8
20260905211448 81 304 2.0 5.0 0.00 0.00 0.00 70 1013.8
20260905211346 81 304 2.0 10.0 0.00 0.00 0.00 70 1013.8
20260905211245 81 298 2.0 10.0 0.00 0.00 0.00 69 1013.8
20260905211144 81 271 2.0 10.0 0.00 0.00 0.00 71 1013.8
20260905211045 81 232 2.0 10.0 0.00 0.00 0.00 70 1013.9
20260905210943 81 169 2.0 10.0 0.00 0.00 0.00 69 1013.9
20260905210838 81 191 2.0 10.0 0.00 0.00 0.00 69 1013.7
20260905210739 80 188 2.0 10.0 0.00 0.00 0.00 70 1013.7
20260905210637 80 260 2.0 10.0 0.00 0.00 0.00 70 1013.7
20260905210538 80 186 2.0 10.0 0.00 0.00 0.00 70 1013.7
20260905210437 80 288 2.0 8.0 0.00 0.00 0.00 70 1013.7
20260905210329 80 0 2.0 4.0 0.00 0.00 0.00 69 1013.7
20260905210226 80 323 2.0 4.0 0.00 0.00 0.00 69 1013.8
20260905210126 80 271 2.0 6.0 0.00 0.00 0.00 69 1013.7
20260905210026 80 317 2.0 6.0 0.00 0.00 0.00 69 1013.7
20260905205927 80 9 2.0 6.0 0.00 0.00 0.00 70 1013.7
20260905205820 80 308 2.0 6.0 0.00 0.00 0.00 71 1013.7
20260905205721 80 15 2.0 6.0 0.00 0.00 0.00 70 1013.5
20260905205620 80 224 2.0 6.0 0.00 0.00 0.00 71 1013.7
20260905205521 80 290 2.0 6.0 0.00 0.00 0.00 72 1013.5
20260905205421 80 336 2.0 6.0 0.00 0.00 0.00 71 1013.7
20260905205317 80 277 3.0 8.0 0.00 0.00 0.00 71 1013.7
20260905205213 80 309 2.0 8.0 0.00 0.00 0.00 73 1013.5
20260905205115 80 260 2.0 8.0 0.00 0.00 0.00 72 1013.5
20260905205014 79 281 2.0 8.0 0.00 0.00 0.00 71 1013.5
20260905204914 79 300 2.0 8.0 0.00 0.00 0.00 72 1013.7
20260905204805 79 261 2.0 8.0 0.00 0.00 0.00 71 1013.7
20260905204703 79 294 2.0 8.0 0.00 0.00 0.00 70 1013.5
20260905204605 79 252 2.0 8.0 0.00 0.00 0.00 71 1013.7
20260905204503 79 202 2.0 8.0 0.00 0.00 0.00 71 1013.7
20260905204404 79 304 2.0 7.0 0.00 0.00 0.00 72 1013.7
20260905204300 79 326 2.0 7.0 0.00 0.00 0.00 74 1013.8
20260905204159 79 23 2.0 7.0 0.00 0.00 0.00 73 1013.7
20260905204100 79 231 2.0 7.0 0.00 0.00 0.00 72 1013.8
20260905203959 79 234 2.0 7.0 0.00 0.00 0.00 71 1013.8
20260905203859 79 157 2.0 5.0 0.00 0.00 0.00 72 1013.8
20260905203755 79 157 2.0 5.0 0.00 0.00 0.00 72 1013.8
20260905203654 79 320 2.0 5.0 0.00 0.00 0.00 71 1013.8
20260905203554 79 288 2.0 5.0 0.00 0.00 0.00 72 1013.8
20260905203455 79 279 2.0 5.0 0.00 0.00 0.00 72 1013.9
20260905203352 79 175 2.0 6.0 0.00 0.00 0.00 72 1013.9
20260905203245 79 183 2.0 6.0 0.00 0.00 0.00 71 1013.8
20260905203142 79 195 2.0 6.0 0.00 0.00 0.00 72 1013.9
20260905203041 79 188 2.0 6.0 0.00 0.00 0.00 72 1014.0
20260905202940 79 192 2.0 6.0 0.00 0.00 0.00 72 1013.9
20260905202839 79 153 2.0 6.0 0.00 0.00 0.00 73 1013.9
20260905202734 79 174 2.0 6.0 0.00 0.00 0.00 72 1014.0
20260905202634 79 174 2.0 6.0 0.00 0.00 0.00 72 1014.0
20260905202534 79 217 2.0 6.0 0.00 0.00 0.00 72 1014.0
20260905202435 80 198 2.0 6.0 0.00 0.00 0.00 72 1014.0
20260905202333 80 131 2.0 6.0 0.00 0.00 0.00 73 1014.1
20260905202228 80 130 2.0 6.0 0.00 0.00 0.00 72 1014.1
20260905202130 80 132 2.0 6.0 0.00 0.00 0.00 73 1014.1
20260905202028 80 176 1.0 6.0 0.00 0.00 0.00 73 1014.0
20260905201928 80 134 1.0 4.0 0.00 0.00 0.00 73 1014.1
20260905201827 80 134 1.0 4.0 0.00 0.00 0.00 73 1014.2
20260905201719 80 163 1.0 4.0 0.00 0.00 0.00 72 1014.1
20260905201617 80 157 1.0 3.0 0.00 0.00 0.00 72 1014.1
20260905201517 80 158 1.0 3.0 0.00 0.00 0.00 73 1014.1
20260905201417 80 74 1.0 3.0 0.00 0.00 0.00 73 1014.1
20260905201317 80 63 1.0 3.0 0.00 0.00 0.00 72 1014.1
20260905201210 80 0 1.0 3.0 0.00 0.00 0.00 73 1014.1
20260905201109 80 306 1.0 3.0 0.00 0.00 0.00 74 1014.1
20260905201011 80 197 1.0 3.0 0.00 0.00 0.00 73 1014.1
20260905200909 80 293 1.0 3.0 0.00 0.00 0.00 73 1014.1
20260905200810 80 211 1.0 3.0 0.00 0.00 0.00 72 1014.2
20260905200710 80 241 1.0 3.0 0.00 0.00 0.00 74 1014.2
20260905200608 80 271 1.0 3.0 0.00 0.00 0.00 73 1014.2
20260905200508 80 269 1.0 3.0 0.00 0.00 0.00 73 1014.1
20260905200407 80 269 1.0 3.0 0.00 0.00 0.00 72 1014.1
20260905200304 80 263 1.0 3.0 0.00 0.00 0.00 72 1014.2
20260905200203 80 220 1.0 3.0 0.00 0.00 0.00 72 1014.1
20260905200104 80 148 1.0 3.0 0.00 0.00 0.00 72 1014.2
20260905200001 80 148 1.0 3.0 0.00 0.00 0.00 74 1014.1
20260905195901 80 148 1.0 4.0 0.00 0.00 0.00 73 1014.1
20260905195759 80 148 1.0 4.0 0.00 0.00 0.00 72 1014.2
20260905195646 80 148 1.0 4.0 0.00 0.00 0.00 73 1014.1
20260905195545 80 150 1.0 4.0 0.00 0.00 0.00 72 1014.1
20260905195446 80 150 1.0 4.0 0.00 0.00 0.00 71 1014.2
20260905195346 80 157 1.0 4.0 0.00 0.00 0.00 72 1014.1
20260905195244 80 169 1.0 4.0 0.00 0.00 0.00 74 1014.2
20260905195139 80 169 1.0 4.0 0.00 0.00 0.00 72 1014.2
20260905195040 79 169 1.0 4.0 0.00 0.00 0.00 72 1014.2
20260905194939 79 169 1.0 4.0 0.00 0.00 0.00 72 1014.1
20260905194839 79 172 1.0 7.0 0.00 0.00 0.00 71 1014.1
20260905194738 79 176 1.0 7.0 0.00 0.00 0.00 72 1014.2
20260905194628 79 175 1.0 7.0 0.00 0.00 0.00 72 1014.1
20260905194528 79 192 1.0 7.0 0.00 0.00 0.00 72 1014.1
20260905194428 79 189 1.0 7.0 0.00 0.00 0.00 71 1014.1
20260905194329 79 242 1.0 7.0 0.00 0.00 0.00 72 1014.1
20260905194228 79 242 2.0 7.0 0.00 0.00 0.00 73 1014.0
20260905194124 79 269 2.0 7.0 0.00 0.00 0.00 73 1013.9
20260905194024 79 245 2.0 7.0 0.00 0.00 0.00 70 1014.0
20260905193925 79 185 1.0 4.0 0.00 0.00 0.00 70 1013.9
20260905193824 79 197 1.0 4.0 0.00 0.00 0.00 72 1013.9
20260905193722 79 200 2.0 4.0 0.00 0.00 0.00 73 1014.0
20260905193618 79 177 2.0 4.0 0.00 0.00 0.00 73 1014.0
20260905193518 79 191 2.0 4.0 0.00 0.00 0.00 73 1014.0
20260905193418 79 191 2.0 4.0 0.00 0.00 0.00 73 1013.9
20260905193318 79 276 1.0 3.0 0.00 0.00 0.00 73 1013.9
20260905193217 79 275 1.0 3.0 0.00 0.00 0.00 72 1014.1
20260905193107 79 221 1.0 3.0 0.00 0.00 0.00 73 1014.1
20260905193007 79 297 1.0 3.0 0.00 0.00 0.00 73 1014.1
20260905192907 79 297 2.0 3.0 0.00 0.00 0.00 73 1014.2
20260905192806 79 292 2.0 3.0 0.00 0.00 0.00 73 1014.2
20260905192707 79 311 2.0 3.0 0.00 0.00 0.00 74 1014.3
20260905192603 79 202 2.0 3.0 0.00 0.00 0.00 73 1014.2
20260905192501 78 202 2.0 5.0 0.00 0.00 0.00 72 1014.3
20260905192400 78 186 2.0 5.0 0.00 0.00 0.00 74 1014.3
20260905192301 78 185 2.0 5.0 0.00 0.00 0.00 73 1014.3
20260905192201 78 274 2.0 5.0 0.00 0.00 0.00 72 1014.2
20260905192053 78 275 2.0 5.0 0.00 0.00 0.00 73 1014.3
20260905191955 78 274 2.0 5.0 0.00 0.00 0.00 71 1014.2
20260905191854 78 271 2.0 5.0 0.00 0.00 0.00 71 1014.2
20260905191753 78 273 2.0 5.0 0.00 0.00 0.00 71 1014.2
20260905191655 78 271 2.0 5.0 0.00 0.00 0.00 71 1014.2
20260905191546 78 297 2.0 5.0 0.00 0.00 0.00 72 1014.2
20260905191444 78 323 2.0 4.0 0.00 0.00 0.00 72 1014.2
20260905191345 78 318 2.0 4.0 0.00 0.00 0.00 71 1014.1
20260905191243 78 329 2.0 6.0 0.00 0.00 0.00 73 1014.1
20260905191145 78 329 2.0 6.0 0.00 0.00 0.00 73 1014.0
20260905191044 78 327 3.0 6.0 0.00 0.00 0.00 72 1014.0
20260905190943 78 295 3.0 6.0 0.00 0.00 0.00 73 1013.9
20260905190839 78 295 3.0 6.0 0.00 0.00 0.00 72 1013.9
20260905190740 78 294 3.0 6.0 0.00 0.00 0.00 71 1013.9
20260905190638 78 328 4.0 7.0 0.00 0.00 0.00 71 1013.9
20260905190531 78 296 4.0 8.0 0.00 0.00 0.00 70 1013.8
20260905190432 78 296 4.0 8.0 0.00 0.00 0.00 69 1013.9
20260905190330 78 289 5.0 9.0 0.00 0.00 0.00 70 1013.9
20260905190229 78 315 5.0 9.0 0.00 0.00 0.00 71 1013.9
20260905190130 78 298 5.0 9.0 0.00 0.00 0.00 69 1013.9
20260905190022 78 342 5.0 9.0 0.00 0.00 0.00 69 1013.9
20260905185922 78 340 5.0 9.0 0.00 0.00 0.00 71 1013.9
20260905185821 78 337 5.0 9.0 0.00 0.00 0.00 71 1013.8
20260905185722 78 325 6.0 9.0 0.00 0.00 0.00 69 1014.0
20260905185621 78 318 5.0 9.0 0.00 0.00 0.00 70 1013.9
20260905185517 78 311 5.0 9.0 0.00 0.00 0.00 69 1013.8
20260905185414 77 323 5.0 9.0 0.00 0.00 0.00 71 1013.9
20260905185315 77 324 5.0 9.0 0.00 0.00 0.00 71 1013.9
20260905185214 77 313 5.0 9.0 0.00 0.00 0.00 72 1013.9
20260905185115 77 318 5.0 9.0 0.00 0.00 0.00 72 1014.0
20260905185009 77 337 5.0 9.0 0.00 0.00 0.00 71 1014.0
20260905184908 77 326 5.0 9.0 0.00 0.00 0.00 71 1014.0
20260905184808 77 332 6.0 9.0 0.00 0.00 0.00 70 1013.9
20260905184708 77 299 6.0 10.0 0.00 0.00 0.00 71 1013.9
20260905184609 77 341 6.0 10.0 0.00 0.00 0.00 71 1014.0
20260905184458 77 340 6.0 10.0 0.00 0.00 0.00 71 1013.9
20260905184359 77 335 6.0 10.0 0.00 0.00 0.00 71 1013.9
20260905184259 77 304 6.0 10.0 0.00 0.00 0.00 70 1013.9
20260905184157 77 274 6.0 10.0 0.00 0.00 0.00 70 1013.9
20260905184059 77 313 6.0 10.0 0.00 0.00 0.00 70 1013.9
20260905183953 77 325 6.0 11.0 0.00 0.00 0.00 69 1014.0
20260905183851 77 303 6.0 11.0 0.00 0.00 0.00 70 1013.9
20260905183751 77 329 6.0 11.0 0.00 0.00 0.00 70 1014.0
20260905183653 77 314 6.0 11.0 0.00 0.00 0.00 70 1014.0
20260905183552 77 306 6.0 11.0 0.00 0.00 0.00 71 1014.1
20260905183446 77 343 7.0 11.0 0.00 0.00 0.00 71 1014.2
20260905183347 77 322 7.0 12.0 0.00 0.00 0.00 70 1014.3
20260905183247 77 327 8.0 12.0 0.00 0.00 0.00 70 1014.5
20260905183145 77 279 8.0 15.0 0.00 0.00 0.00 70 1014.5
20260905183046 77 319 8.0 15.0 0.00 0.00 0.00 70 1014.5
20260905182937 77 325 8.0 15.0 0.00 0.00 0.00 69 1014.6
20260905182835 77 323 8.0 15.0 0.00 0.00 0.00 69 1014.4
20260905182736 77 329 9.0 15.0 0.00 0.00 0.00 69 1014.2
20260905182636 77 309 9.0 15.0 0.00 0.00 0.00 68 1014.2
20260905182536 77 289 9.0 15.0 0.00 0.00 0.00 68 1014.4
20260905182434 77 315 9.0 15.0 0.00 0.00 0.00 69 1014.6
20260905182333 77 298 9.0 15.0 0.00 0.00 0.00 68 1014.7
20260905182233 77 275 8.0 14.0 0.00 0.00 0.00 69 1014.8
20260905182134 77 288 8.0 13.0 0.00 0.00 0.00 68 1014.8
20260905182033 77 290 8.0 13.0 0.00 0.00 0.00 68 1014.8
20260905181935 78 288 8.0 13.0 0.00 0.00 0.00 67 1014.6
20260905181834 78 326 8.0 13.0 0.00 0.00 0.00 66 1014.4
20260905181733 78 298 7.0 13.0 0.00 0.00 0.00 67 1014.4
20260905181634 78 300 8.0 14.0 0.00 0.00 0.00 67 1014.4
20260905181534 78 327 7.0 14.0 0.00 0.00 0.00 66 1014.4
20260905181434 78 332 8.0 14.0 0.00 0.00 0.00 66 1014.5
20260905181335 78 302 8.0 16.0 0.00 0.00 0.00 67 1014.5
20260905181234 78 334 8.0 16.0 0.00 0.00 0.00 67 1014.6
20260905181134 78 311 8.0 16.0 0.00 0.00 0.00 68 1014.6
20260905181034 78 336 9.0 16.0 0.00 0.00 0.00 68 1014.7
20260905180936 78 333 9.0 16.0 0.00 0.00 0.00 67 1014.8
20260905180835 78 325 9.0 16.0 0.00 0.00 0.00 67 1014.9
20260905180735 78 292 9.0 16.0 0.00 0.00 0.00 67 1014.8
20260905180632 78 297 9.0 16.0 0.00 0.00 0.00 66 1014.7
20260905180532 78 315 9.0 16.0 0.00 0.00 0.00 66 1014.5
20260905180432 78 325 9.0 16.0 0.00 0.00 0.00 65 1014.4
20260905180331 78 327 10.0 15.0 0.00 0.00 0.00 66 1014.5
20260905180231 78 342 10.0 15.0 0.00 0.00 0.00 65 1014.7
20260905180131 78 331 10.0 15.0 0.00 0.00 0.00 65 1014.8
20260905180031 78 308 10.0 15.0 0.00 0.00 0.00 66 1015.0
20260905175932 79 331 10.0 15.0 0.00 0.00 0.00 65 1015.1
20260905175832 79 315 10.0 15.0 0.00 0.00 0.00 66 1015.3
20260905175733 79 329 10.0 15.0 0.00 0.00 0.00 65 1015.3
20260905175633 79 306 10.0 15.0 0.00 0.00 0.00 65 1015.4
20260905175531 79 345 10.0 15.0 0.00 0.00 0.00 65 1015.4
20260905175432 79 317 10.0 15.0 0.00 0.00 0.00 64 1015.5
20260905175332 79 334 10.0 19.0 0.00 0.00 0.00 64 1015.6
20260905175232 79 340 10.0 19.0 0.00 0.00 0.00 64 1015.8
20260905175131 79 333 11.0 19.0 0.00 0.00 0.00 65 1015.9
20260905175031 79 333 11.0 19.0 0.00 0.00 0.00 65 1016.0
20260905174931 79 292 11.0 19.0 0.00 0.00 0.00 65 1016.1
20260905174832 80 319 11.0 19.0 0.00 0.00 0.00 65 1016.0
20260905174733 80 338 11.0 19.0 0.00 0.00 0.00 65 1016.0
20260905174633 80 332 11.0 19.0 0.00 0.00 0.00 65 1016.0
20260905174533 80 324 11.0 19.0 0.00 0.00 0.00 65 1016.1
20260905174431 80 350 11.0 19.0 0.00 0.00 0.00 64 1016.1
20260905174333 80 330 11.0 19.0 0.00 0.00 0.00 65 1016.2
20260905174231 80 321 11.0 19.0 0.00 0.00 0.00 65 1016.2
20260905174132 80 315 11.0 19.0 0.00 0.00 0.00 65 1016.3
20260905174033 80 306 11.0 19.0 0.00 0.00 0.00 65 1016.4
20260905173929 80 332 12.0 21.0 0.00 0.00 0.00 66 1016.4
20260905173828 80 355 11.0 21.0 0.00 0.00 0.00 66 1016.4
20260905173727 80 328 12.0 21.0 0.00 0.00 0.00 68 1016.4
20260905173627 80 331 12.0 21.0 0.00 0.00 0.00 67 1016.4
20260905173527 80 309 13.0 21.0 0.00 0.00 0.00 68 1016.3
20260905173427 80 18 13.0 21.0 0.00 0.00 0.00 67 1016.3
20260905173327 81 313 14.0 21.0 0.00 0.00 0.00 67 1016.2
20260905173228 81 355 14.0 21.0 0.00 0.00 0.00 67 1016.2
20260905173129 81 307 14.0 23.0 0.00 0.00 0.00 66 1016.3
20260905173027 81 315 15.0 23.0 0.00 0.00 0.00 65 1016.2
20260905172928 81 332 15.0 23.0 0.00 0.00 0.00 68 1016.1
20260905172827 81 313 15.0 23.0 0.00 0.00 0.00 68 1016.1
20260905172727 81 299 15.0 23.0 0.00 0.00 0.00 68 1016.2
20260905172628 81 314 15.0 25.0 0.00 0.00 0.00 69 1016.1
20260905172528 81 322 16.0 27.0 0.00 0.00 0.00 68 1016.1
20260905172428 82 312 16.0 27.0 0.00 0.00 0.00 68 1015.9
20260905172328 82 306 16.0 27.0 0.00 0.00 0.00 68 1015.9
20260905172227 82 303 16.0 29.0 0.00 0.00 0.00 67 1016.0
20260905172127 83 327 15.0 29.0 0.00 0.00 0.00 69 1015.9
20260905172029 83 329 15.0 29.0 0.00 0.00 0.00 69 1016.0
20260905171927 84 297 15.0 29.0 0.00 0.00 0.00 70 1016.0
20260905171828 84 318 14.0 29.0 0.00 0.00 0.00 69 1015.9
20260905171729 85 314 13.0 29.0 0.00 0.00 0.00 67 1016.0
20260905171627 85 286 12.0 29.0 0.00 0.00 0.00 67 1016.0
20260905171529 85 312 12.0 29.0 0.00 0.00 0.00 66 1015.9
20260905171428 85 279 11.0 29.0 0.00 0.00 0.00 66 1015.9
20260905171320 85 278 11.0 29.0 0.00 0.00 0.00 66 1015.9
20260905171221 86 254 10.0 21.0 0.00 0.00 0.00 66 1015.8
20260905171120 86 342 10.0 21.0 0.00 0.00 0.00 65 1015.8
20260905171020 86 277 9.0 20.0 0.00 0.00 0.00 68 1015.9
20260905170919 86 331 9.0 16.0 0.00 0.00 0.00 69 1015.8
20260905170821 86 284 8.0 16.0 0.00 0.00 0.00 68 1015.8
20260905170719 86 243 8.0 16.0 0.00 0.00 0.00 67 1015.8
20260905170621 86 334 8.0 16.0 0.00 0.00 0.00 68 1015.8
20260905170519 86 293 8.0 16.0 0.00 0.00 0.00 67 1015.7
20260905170419 86 321 8.0 16.0 0.00 0.00 0.00 68 1015.8
20260905170319 86 286 7.0 14.0 0.00 0.00 0.00 68 1015.8
20260905170220 86 296 7.0 14.0 0.00 0.00 0.00 70 1015.9
20260905170121 86 336 7.0 14.0 0.00 0.00 0.00 70 1016.0
20260905170020 86 321 7.0 14.0 0.00 0.00 0.00 70 1016.0
20260905165919 86 299 7.0 14.0 0.00 0.00 0.00 70 1016.1
20260905165820 86 319 8.0 15.0 0.00 0.00 0.00 70 1016.1
20260905165719 86 309 7.0 15.0 0.00 0.00 0.00 70 1016.1
20260905165620 87 317 7.0 15.0 0.00 0.00 0.00 69 1016.2
20260905165519 87 331 6.0 15.0 0.00 0.00 0.00 69 1016.2
20260905165420 87 299 5.0 15.0 0.00 0.00 0.00 69 1016.3
20260905165321 87 286 4.0 15.0 0.00 0.00 0.00 68 1016.2
20260905165221 87 307 4.0 15.0 0.00 0.00 0.00 68 1016.3
20260905165119 87 329 3.0 15.0 0.00 0.00 0.00 67 1016.2
20260905165019 87 323 2.0 15.0 0.00 0.00 0.00 66 1016.3
20260905164920 87 291 1.0 15.0 0.00 0.00 0.00 68 1016.4
20260905164821 87 303 1.0 10.0 0.00 0.00 0.00 68 1016.3
20260905164719 87 308 0.0 0.0 0.00 0.00 0.00 67 1016.3
20260905164621 87 324 0.0 0.0 0.00 0.00 0.00 68 1016.3
20260905164519 87 339 0.0 0.0 0.00 0.00 0.00 68 1016.3
20260905164420 87 319 0.0 0.0 0.00 0.00 0.00 68 1016.3
20260905164319 87 279 0.0 0.0 0.00 0.00 0.00 69 1016.3
20260905164219 87 341 0.0 0.0 0.00 0.00 0.00 70 1016.3
20260905164121 87 331 0.0 0.0 0.00 0.00 0.00 68 1016.3
20260905164015 87 335 0.0 0.0 0.00 0.00 0.00 69 1016.2
20260905163917 87 315 0.0 0.0 0.00 0.00 0.00 69 1016.3
20260905163817 87 346 0.0 2.0 0.00 0.00 0.00 69 1016.3
20260905163715 87 333 0.0 3.0 0.00 0.00 0.00 68 1016.3
20260905163616 87 313 0.0 3.0 0.00 0.00 0.00 70 1016.2
20260905163515 87 316 0.0 3.0 0.00 0.00 0.00 70 1016.2
20260905163416 87 334 0.0 3.0 0.00 0.00 0.00 69 1016.2
20260905163317 87 317 0.0 3.0 0.00 0.00 0.00 70 1016.3
20260905163215 87 332 0.0 3.0 0.00 0.00 0.00 69 1016.3
20260905163115 87 277 0.0 3.0 0.00 0.00 0.00 71 1016.2
20260905163016 87 15 1.0 8.0 0.00 0.00 0.00 70 1016.2
20260905162915 87 329 1.0 10.0 0.00 0.00 0.00 68 1016.2
20260905162815 87 261 2.0 12.0 0.00 0.00 0.00 68 1016.2
20260905162715 87 261 3.0 12.0 0.00 0.00 0.00 68 1016.2
20260905162616 87 276 4.0 12.0 0.00 0.00 0.00 69 1016.3
20260905162516 87 294 4.0 12.0 0.00 0.00 0.00 69 1016.3
20260905162416 87 265 5.0 12.0 0.00 0.00 0.00 69 1016.4
20260905162316 87 329 6.0 12.0 0.00 0.00 0.00 68 1016.3
20260905162215 87 294 6.0 12.0 0.00 0.00 0.00 69 1016.3
20260905162116 87 286 6.0 12.0 0.00 0.00 0.00 69 1016.3
20260905162015 87 331 6.0 12.0 0.00 0.00 0.00 67 1016.2
20260905161915 87 298 6.0 12.0 0.00 0.00 0.00 67 1016.3
20260905161816 87 304 6.0 11.0 0.00 0.00 0.00 69 1016.3
20260905161715 87 305 6.0 11.0 0.00 0.00 0.00 69 1016.2
20260905161615 87 321 5.0 11.0 0.00 0.00 0.00 69 1016.3
20260905161516 87 318 5.0 11.0 0.00 0.00 0.00 71 1016.3
20260905161416 87 319 4.0 9.0 0.00 0.00 0.00 69 1016.3
20260905161316 87 300 4.0 9.0 0.00 0.00 0.00 70 1016.3
20260905161215 87 323 4.0 9.0 0.00 0.00 0.00 70 1016.3
20260905161116 87 329 4.0 9.0 0.00 0.00 0.00 70 1016.2
20260905161016 87 336 3.0 9.0 0.00 0.00 0.00 71 1016.3
20260905160915 87 342 4.0 9.0 0.00 0.00 0.00 70 1016.3
20260905160816 87 348 3.0 8.0 0.00 0.00 0.00 71 1016.4
20260905160712 87 310 3.0 8.0 0.00 0.00 0.00 71 1016.3
20260905160611 87 5 2.0 7.0 0.00 0.00 0.00 70 1016.3
20260905160511 87 36 2.0 7.0 0.00 0.00 0.00 69 1016.3
20260905160411 86 261 2.0 8.0 0.00 0.00 0.00 70 1016.3
20260905160313 86 5 2.0 8.0 0.00 0.00 0.00 71 1016.3
20260905160209 86 5 2.0 8.0 0.00 0.00 0.00 71 1016.3
20260905160110 86 344 2.0 8.0 0.00 0.00 0.00 71 1016.3
20260905160010 86 349 2.0 8.0 0.00 0.00 0.00 70 1016.4
20260905155909 86 335 2.0 9.0 0.00 0.00 0.00 70 1016.4
20260905155810 86 329 2.0 10.0 0.00 0.00 0.00 71 1016.4
20260905155711 86 296 2.0 10.0 0.00 0.00 0.00 70 1016.4
20260905155610 86 322 2.0 10.0 0.00 0.00 0.00 70 1016.4
20260905155502 86 319 2.0 10.0 0.00 0.00 0.00 71 1016.4
20260905155400 86 306 2.0 10.0 0.00 0.00 0.00 69 1016.3
20260905155301 86 307 1.0 10.0 0.00 0.00 0.00 69 1016.3
20260905155158 86 305 1.0 10.0 0.00 0.00 0.00 69 1016.4
20260905155059 86 304 1.0 10.0 0.00 0.00 0.00 70 1016.5
20260905154957 86 308 1.0 10.0 0.00 0.00 0.00 70 1016.5
20260905154853 86 296 0.0 10.0 0.00 0.00 0.00 71 1016.4
20260905154753 86 315 0.0 6.0 0.00 0.00 0.00 69 1016.5
20260905154652 86 325 0.0 0.0 0.00 0.00 0.00 71 1016.6
20260905154551 86 309 0.0 0.0 0.00 0.00 0.00 69 1016.5
20260905154446 86 355 0.0 0.0 0.00 0.00 0.00 69 1016.5
20260905154347 86 312 0.0 0.0 0.00 0.00 0.00 70 1016.5
20260905154246 86 311 0.0 0.0 0.00 0.00 0.00 70 1016.5
20260905154147 86 338 0.0 0.0 0.00 0.00 0.00 70 1016.5
20260905154043 86 332 0.0 0.0 0.00 0.00 0.00 70 1016.4
20260905153933 86 314 0.0 0.0 0.00 0.00 0.00 70 1016.5
20260905153833 86 347 0.0 0.0 0.00 0.00 0.00 71 1016.5
20260905153735 86 308 0.0 0.0 0.00 0.00 0.00 70 1016.4
20260905153635 86 288 0.0 0.0 0.00 0.00 0.00 70 1016.4
20260905153534 86 330 0.0 0.0 0.00 0.00 0.00 69 1016.5
20260905153427 86 273 0.0 0.0 0.00 0.00 0.00 69 1016.5
20260905153325 86 293 0.0 0.0 0.00 0.00 0.00 69 1016.4
20260905153225 87 312 0.0 0.0 0.00 0.00 0.00 71 1016.4
20260905153126 87 328 0.0 0.0 0.00 0.00 0.00 71 1016.4
20260905153026 86 333 0.0 0.0 0.00 0.00 0.00 69 1016.4
20260905152920 87 317 0.0 0.0 0.00 0.00 0.00 69 1016.4
20260905152820 87 315 0.0 0.0 0.00 0.00 0.00 71 1016.3
20260905152720 87 311 0.0 0.0 0.00 0.00 0.00 70 1016.4
20260905152621 87 317 0.0 0.0 0.00 0.00 0.00 69 1016.4
20260905152520 87 0 0.0 0.0 0.00 0.00 0.00 70 1016.3
20260905152411 87 10 0.0 0.0 0.00 0.00 0.00 71 1016.4
20260905152310 87 9 0.0 0.0 0.00 0.00 0.00 70 1016.4
20260905152211 87 9 0.0 0.0 0.00 0.00 0.00 69 1016.3
20260905152110 87 11 0.0 0.0 0.00 0.00 0.00 70 1016.3
20260905152010 86 319 0.0 0.0 0.00 0.00 0.00 70 1016.3
20260905151905 86 317 0.0 0.0 0.00 0.00 0.00 70 1016.3
20260905151804 86 317 0.0 0.0 0.00 0.00 0.00 69 1016.3
20260905151704 86 0 0.0 0.0 0.00 0.00 0.00 69 1016.3
20260905151603 86 313 0.0 0.0 0.00 0.00 0.00 71 1016.3
20260905151505 86 348 0.0 0.0 0.00 0.00 0.00 70 1016.3
20260905151403 86 350 0.0 0.0 0.00 0.00 0.00 71 1016.2
20260905151302 86 350 0.0 0.0 0.00 0.00 0.00 71 1016.2
20260905151201 86 350 0.0 0.0 0.00 0.00 0.00 71 1016.2
20260905151100 86 350 0.0 0.0 0.00 0.00 0.00 70 1016.2
20260905150958 86 325 0.0 0.0 0.00 0.00 0.00 68 1016.2
20260905150852 86 334 0.0 0.0 0.00 0.00 0.00 70 1016.2
20260905150752 86 338 0.0 0.0 0.00 0.00 0.00 70 1016.2
20260905150653 86 337 0.0 0.0 0.00 0.00 0.00 72 1016.2
20260905150550 86 338 0.0 0.0 0.00 0.00 0.00 70 1016.2
20260905150448 86 333 0.0 0.0 0.00 0.00 0.00 72 1016.2
20260905150344 86 333 0.0 0.0 0.00 0.00 0.00 72 1016.3
20260905150241 86 333 0.0 0.0 0.00 0.00 0.00 70 1016.2
20260905150143 86 309 0.0 0.0 0.00 0.00 0.00 71 1016.2
20260905150041 86 321 0.0 0.0 0.00 0.00 0.00 72 1016.2
20260905145941 86 338 0.0 0.0 0.00 0.00 0.00 71 1016.2
20260905145839 86 337 0.0 0.0 0.00 0.00 0.00 71 1016.2
20260905145741 86 306 0.0 0.0 0.00 0.00 0.00 72 1016.2
20260905145639 86 338 0.0 4.0 0.00 0.00 0.00 73 1016.2
20260905145537 86 338 0.0 4.0 0.00 0.00 0.00 71 1016.2
20260905145436 86 338 0.0 4.0 0.00 0.00 0.00 72 1016.2
20260905145329 86 338 0.0 4.0 0.00 0.00 0.00 72 1016.3
20260905145225 86 314 0.0 4.0 0.00 0.00 0.00 70 1016.3
20260905145125 86 280 0.0 4.0 0.00 0.00 0.00 72 1016.2
20260905145026 86 310 0.0 4.0 0.00 0.00 0.00 71 1016.2
20260905144926 86 306 0.0 4.0 0.00 0.00 0.00 71 1016.2
20260905144825 86 327 0.0 4.0 0.00 0.00 0.00 71 1016.3
20260905144724 86 259 0.0 4.0 0.00 0.00 0.00 73 1016.3
20260905144621 86 319 0.0 3.0 0.00 0.00 0.00 74 1016.4
20260905144522 86 319 0.0 0.0 0.00 0.00 0.00 73 1016.4
20260905144420 86 316 0.0 0.0 0.00 0.00 0.00 70 1016.3
20260905144319 86 317 0.0 0.0 0.00 0.00 0.00 71 1016.3
20260905144217 86 315 0.0 0.0 0.00 0.00 0.00 71 1016.3
20260905144115 86 290 0.0 0.0 0.00 0.00 0.00 71 1016.4
20260905144016 86 326 0.0 0.0 0.00 0.00 0.00 72 1016.3
20260905143913 86 326 0.0 0.0 0.00 0.00 0.00 72 1016.4
20260905143804 86 326 0.0 0.0 0.00 0.00 0.00 72 1016.4
20260905143704 86 325 0.0 0.0 0.00 0.00 0.00 71 1016.3
20260905143603 86 325 0.0 0.0 0.00 0.00 0.00 70 1016.3
20260905143503 86 326 0.0 0.0 0.00 0.00 0.00 70 1016.4
20260905143403 86 326 0.0 0.0 0.00 0.00 0.00 70 1016.5
20260905143259 86 325 0.0 0.0 0.00 0.00 0.00 73 1016.4
20260905143157 86 275 0.0 0.0 0.00 0.00 0.00 72 1016.5
20260905143057 86 273 0.0 0.0 0.00 0.00 0.00 70 1016.4
20260905142958 86 273 0.0 0.0 0.00 0.00 0.00 71 1016.5
20260905142858 86 271 0.0 0.0 0.00 0.00 0.00 69 1016.4
20260905142757 86 270 0.0 0.0 0.00 0.00 0.00 71 1016.5
20260905142656 86 270 0.0 0.0 0.00 0.00 0.00 71 1016.4
20260905142553 86 269 0.0 0.0 0.00 0.00 0.00 71 1016.4
20260905142453 86 267 0.0 0.0 0.00 0.00 0.00 70 1016.4
20260905142351 86 267 0.0 0.0 0.00 0.00 0.00 71 1016.3
20260905142245 86 267 0.0 0.0 0.00 0.00 0.00 72 1016.4
20260905142146 86 271 0.0 0.0 0.00 0.00 0.00 70 1016.3
20260905142045 86 240 0.0 0.0 0.00 0.00 0.00 71 1016.3
20260905141944 85 161 0.0 0.0 0.00 0.00 0.00 70 1016.3
20260905141842 86 290 0.0 0.0 0.00 0.00 0.00 70 1016.3
20260905141738 85 290 0.0 0.0 0.00 0.00 0.00 70 1016.3
20260905141635 85 290 0.0 0.0 0.00 0.00 0.00 70 1016.3
20260905141536 85 290 0.0 0.0 0.00 0.00 0.00 69 1016.3
20260905141435 86 312 0.0 0.0 0.00 0.00 0.00 69 1016.3
20260905141336 85 288 0.0 0.0 0.00 0.00 0.00 70 1016.2
20260905141231 85 288 0.0 0.0 0.00 0.00 0.00 70 1016.3
20260905141129 86 279 0.0 0.0 0.00 0.00 0.00 70 1016.3
20260905141030 85 279 0.0 0.0 0.00 0.00 0.00 71 1016.3
20260905140929 85 278 0.0 0.0 0.00 0.00 0.00 69 1016.2
20260905140830 85 278 0.0 0.0 0.00 0.00 0.00 71 1016.2
20260905140724 85 278 0.0 0.0 0.00 0.00 0.00 69 1016.2
20260905140624 85 275 0.0 0.0 0.00 0.00 0.00 69 1016.3
20260905140524 85 275 0.0 0.0 0.00 0.00 0.00 70 1016.3
20260905140421 85 274 0.0 0.0 0.00 0.00 0.00 72 1016.2
20260905140320 85 274 0.0 0.0 0.00 0.00 0.00 70 1016.2
20260905140220 85 274 0.0 0.0 0.00 0.00 0.00 69 1016.2
20260905140119 85 274 0.0 0.0 0.00 0.00 0.00 69 1016.2
20260905140015 85 273 0.0 0.0 0.00 0.00 0.00 70 1016.3
20260905135915 85 273 0.0 0.0 0.00 0.00 0.00 71 1016.2
20260905135813 85 273 0.0 0.0 0.00 0.00 0.00 72 1016.2
20260905135713 85 273 0.0 0.0 0.00 0.00 0.00 70 1016.2
20260905135613 85 273 0.0 0.0 0.00 0.00 0.00 70 1016.2
20260905135509 85 273 0.0 0.0 0.00 0.00 0.00 70 1016.2
20260905135410 85 273 0.0 0.0 0.00 0.00 0.00 69 1016.2
20260905135308 85 326 0.0 0.0 0.00 0.00 0.00 71 1016.2
20260905135201 85 326 0.0 0.0 0.00 0.00 0.00 70 1016.2
20260905135101 85 326 0.0 0.0 0.00 0.00 0.00 70 1016.2
20260905135002 84 326 0.0 0.0 0.00 0.00 0.00 70 1016.2
20260905134859 84 326 0.0 0.0 0.00 0.00 0.00 70 1016.2
20260905134757 84 326 0.0 0.0 0.00 0.00 0.00 71 1016.3
20260905134658 84 326 0.0 0.0 0.00 0.00 0.00 73 1016.2
20260905134557 84 326 0.0 0.0 0.00 0.00 0.00 72 1016.2
20260905134453 84 326 0.0 0.0 0.00 0.00 0.00 72 1016.3
20260905134353 84 323 0.0 0.0 0.00 0.00 0.00 70 1016.2
20260905134251 84 321 0.0 0.0 0.00 0.00 0.00 72 1016.3
20260905134151 84 319 0.0 0.0 0.00 0.00 0.00 72 1016.2
20260905134049 84 303 0.0 0.0 0.00 0.00 0.00 72 1016.3
20260905133947 84 302 0.0 0.0 0.00 0.00 0.00 70 1016.3
20260905133847 84 302 0.0 0.0 0.00 0.00 0.00 70 1016.3
20260905133746 84 304 0.0 0.0 0.00 0.00 0.00 72 1016.3
20260905133639 84 297 0.0 0.0 0.00 0.00 0.00 71 1016.4
20260905133539 84 296 0.0 0.0 0.00 0.00 0.00 73 1016.4
20260905133439 84 295 0.0 0.0 0.00 0.00 0.00 72 1016.4
20260905133337 84 295 0.0 0.0 0.00 0.00 0.00 73 1016.3
20260905133236 84 295 0.0 0.0 0.00 0.00 0.00 71 1016.4
20260905133133 84 295 0.0 0.0 0.00 0.00 0.00 72 1016.4
20260905133034 84 295 0.0 0.0 0.00 0.00 0.00 72 1016.4
20260905132934 84 296 0.0 0.0 0.00 0.00 0.00 72 1016.4
20260905132832 84 296 0.0 0.0 0.00 0.00 0.00 72 1016.4
20260905132730 84 296 0.0 0.0 0.00 0.00 0.00 73 1016.3
20260905132629 83 296 0.0 0.0 0.00 0.00 0.00 72 1016.4
20260905132527 83 296 0.0 0.0 0.00 0.00 0.00 72 1016.4
20260905132425 83 296 0.0 0.0 0.00 0.00 0.00 73 1016.3
20260905132326 83 296 0.0 0.0 0.00 0.00 0.00 72 1016.3
20260905132224 83 295 0.0 0.0 0.00 0.00 0.00 73 1016.4
20260905132118 83 295 0.0 0.0 0.00 0.00 0.00 74 1016.4
20260905132018 83 294 0.0 0.0 0.00 0.00 0.00 75 1016.3
20260905131915 83 294 0.0 0.0 0.00 0.00 0.00 75 1016.4
20260905131816 83 294 0.0 0.0 0.00 0.00 0.00 74 1016.3
20260905131713 83 294 0.0 0.0 0.00 0.00 0.00 74 1016.4
20260905131610 83 294 0.0 0.0 0.00 0.00 0.00 73 1016.4
20260905131508 83 294 0.0 0.0 0.00 0.00 0.00 73 1016.4
20260905131407 83 294 0.0 0.0 0.00 0.00 0.00 73 1016.4
20260905131309 83 294 0.0 0.0 0.00 0.00 0.00 74 1016.4
20260905131208 83 294 0.0 0.0 0.00 0.00 0.00 74 1016.4
20260905131103 83 294 0.0 0.0 0.00 0.00 0.00 75 1016.4
20260905131005 83 293 0.0 0.0 0.00 0.00 0.00 75 1016.4
20260905130903 83 293 0.0 0.0 0.00 0.00 0.00 75 1016.5
20260905130802 82 293 0.0 0.0 0.00 0.00 0.00 75 1016.4
20260905130701 82 293 0.0 0.0 0.00 0.00 0.00 74 1016.4
20260905130556 82 292 0.0 0.0 0.00 0.00 0.00 74 1016.4
20260905130455 82 292 0.0 0.0 0.00 0.00 0.00 75 1016.5
20260905130355 82 331 0.0 0.0 0.00 0.00 0.00 76 1016.4
20260905130253 82 331 0.0 0.0 0.00 0.00 0.00 74 1016.4
20260905130151 82 335 0.0 0.0 0.00 0.00 0.00 75 1016.5
20260905130052 82 336 0.0 0.0 0.00 0.00 0.00 75 1016.5
20260905125948 82 288 0.0 0.0 0.00 0.00 0.00 76 1016.5
20260905125848 82 321 0.0 0.0 0.00 0.00 0.00 75 1016.4
20260905125748 82 321 0.0 0.0 0.00 0.00 0.00 76 1016.5
20260905125645 82 321 0.0 0.0 0.00 0.00 0.00 76 1016.4
20260905125542 82 321 0.0 0.0 0.00 0.00 0.00 74 1016.4
20260905125439 82 292 0.0 0.0 0.00 0.00 0.00 75 1016.4
20260905125340 82 292 0.0 0.0 0.00 0.00 0.00 73 1016.5
20260905125238 82 292 0.0 0.0 0.00 0.00 0.00 75 1016.5
20260905125140 82 292 0.0 0.0 0.00 0.00 0.00 75 1016.4
20260905125032 82 292 0.0 1.0 0.00 0.00 0.00 74 1016.4
20260905124933 81 292 0.0 4.0 0.00 0.00 0.00 74 1016.5
20260905124831 81 321 0.0 4.0 0.00 0.00 0.00 75 1016.5
20260905124732 81 295 1.0 4.0 0.00 0.00 0.00 75 1016.5
20260905124630 81 295 1.0 4.0 0.00 0.00 0.00 75 1016.5
20260905124529 81 320 1.0 4.0 0.00 0.00 0.00 75 1016.5
20260905124427 81 324 1.0 4.0 0.00 0.00 0.00 75 1016.5
20260905124326 81 268 1.0 4.0 0.00 0.00 0.00 74 1016.5
20260905124225 81 268 1.0 4.0 0.00 0.00 0.00 75 1016.5
20260905124124 81 304 2.0 4.0 0.00 0.00 0.00 74 1016.5
20260905124018 81 304 2.0 4.0 0.00 0.00 0.00 75 1016.4
20260905123917 81 284 2.0 5.0 0.00 0.00 0.00 75 1016.4
20260905123819 81 284 2.0 7.0 0.00 0.00 0.00 75 1016.4
20260905123717 81 288 2.0 7.0 0.00 0.00 0.00 76 1016.5
20260905123618 81 295 3.0 7.0 0.00 0.00 0.00 76 1016.4
20260905123508 81 295 3.0 7.0 0.00 0.00 0.00 75 1016.4
20260905123409 81 295 3.0 7.0 0.00 0.00 0.00 75 1016.4
20260905123308 81 306 3.0 7.0 0.00 0.00 0.00 76 1016.5
20260905123207 81 307 4.0 7.0 0.00 0.00 0.00 75 1016.5
20260905123107 81 308 4.0 7.0 0.00 0.00 0.00 75 1016.4
20260905123005 81 302 4.0 7.0 0.00 0.00 0.00 75 1016.3
20260905122901 80 302 4.0 7.0 0.00 0.00 0.00 76 1016.4
20260905122801 80 302 4.0 5.0 0.00 0.00 0.00 76 1016.4
20260905122703 80 302 4.0 5.0 0.00 0.00 0.00 75 1016.3
20260905122602 80 290 4.0 5.0 0.00 0.00 0.00 75 1016.4
20260905122459 80 316 3.0 5.0 0.00 0.00 0.00 74 1016.4
20260905122359 80 308 3.0 5.0 0.00 0.00 0.00 75 1016.4
20260905122259 80 299 3.0 5.0 0.00 0.00 0.00 75 1016.5
20260905122158 80 299 3.0 6.0 0.00 0.00 0.00 76 1016.4
20260905122056 80 299 2.0 6.0 0.00 0.00 0.00 75 1016.5
20260905121949 80 298 2.0 6.0 0.00 0.00 0.00 76 1016.4
20260905121850 80 298 2.0 6.0 0.00 0.00 0.00 75 1016.5
20260905121748 80 298 2.0 6.0 0.00 0.00 0.00 75 1016.5
20260905121647 80 295 2.0 6.0 0.00 0.00 0.00 75 1016.4
20260905121546 80 295 2.0 7.0 0.00 0.00 0.00 75 1016.5
20260905121440 80 306 2.0 7.0 0.00 0.00 0.00 75 1016.5
20260905121339 80 315 3.0 7.0 0.00 0.00 0.00 76 1016.5
20260905121240 80 324 3.0 7.0 0.00 0.00 0.00 75 1016.4
20260905121140 80 315 3.0 8.0 0.00 0.00 0.00 75 1016.5
20260905121040 80 319 4.0 8.0 0.00 0.00 0.00 76 1016.4
20260905120936 80 325 4.0 8.0 0.00 0.00 0.00 76 1016.4
20260905120836 80 328 4.0 8.0 0.00 0.00 0.00 75 1016.3
20260905120734 80 294 4.0 8.0 0.00 0.00 0.00 76 1016.3
20260905120635 79 308 4.0 8.0 0.00 0.00 0.00 76 1016.4
20260905120533 79 311 4.0 8.0 0.00 0.00 0.00 76 1016.4
20260905120426 79 306 4.0 8.0 0.00 0.00 0.00 76 1016.5
20260905120324 79 288 4.0 8.0 0.00 0.00 0.00 77 1016.4
20260905120223 79 282 4.0 8.0 0.00 0.00 0.00 76 1016.5
20260905120123 79 306 3.0 8.0 0.00 0.00 0.00 77 1016.4
20260905120023 79 302 3.0 5.0 0.00 0.00 0.00 77 1016.5
20260905115921 79 301 3.0 5.0 0.00 0.00 0.00 77 1016.4
20260905115822 78 301 3.0 5.0 0.00 0.00 0.00 78 1016.5
20260905115719 78 303 3.0 5.0 0.00 0.00 0.00 78 1016.4
20260905115620 78 303 2.0 5.0 0.00 0.00 0.00 77 1016.3
20260905115517 78 298 2.0 5.0 0.00 0.00 0.00 78 1016.2
20260905115415 78 298 2.0 5.0 0.00 0.00 0.00 78 1016.3
20260905115314 78 293 2.0 5.0 0.00 0.00 0.00 78 1016.3
20260905115215 78 293 1.0 5.0 0.00 0.00 0.00 78 1016.3
20260905115114 78 280 1.0 4.0 0.00 0.00 0.00 78 1016.3
20260905115011 78 280 0.0 4.0 0.00 0.00 0.00 78 1016.3
20260905114906 78 255 0.0 3.0 0.00 0.00 0.00 79 1016.3
20260905114806 78 255 0.0 2.0 0.00 0.00 0.00 79 1016.3
20260905114704 78 255 0.0 2.0 0.00 0.00 0.00 79 1016.3
20260905114604 78 254 0.0 2.0 0.00 0.00 0.00 79 1016.2
20260905114502 77 254 0.0 2.0 0.00 0.00 0.00 79 1016.2
20260905114359 77 254 0.0 2.0 0.00 0.00 0.00 79 1016.2
20260905114300 77 267 0.0 0.0 0.00 0.00 0.00 79 1016.2
20260905114200 77 267 0.0 0.0 0.00 0.00 0.00 79 1016.2
20260905114058 77 267 0.0 0.0 0.00 0.00 0.00 80 1016.1
20260905113956 77 271 0.0 0.0 0.00 0.00 0.00 80 1016.1
20260905113855 77 271 0.0 0.0 0.00 0.00 0.00 80 1016.1
20260905113754 77 271 0.0 0.0 0.00 0.00 0.00 80 1016.2
20260905113651 77 271 0.0 0.0 0.00 0.00 0.00 80 1016.1
20260905113552 77 271 0.0 0.0 0.00 0.00 0.00 80 1016.2
20260905113450 77 271 0.0 0.0 0.00 0.00 0.00 80 1016.1
20260905113345 77 271 0.0 0.0 0.00 0.00 0.00 80 1016.1
20260905113245 77 271 0.0 0.0 0.00 0.00 0.00 81 1016.1
20260905113141 77 271 0.0 0.0 0.00 0.00 0.00 81 1016.0
20260905113040 77 271 0.0 0.0 0.00 0.00 0.00 80 1016.0
20260905112940 77 271 0.0 0.0 0.00 0.00 0.00 80 1016.0
20260905112839 77 271 0.0 0.0 0.00 0.00 0.00 80 1016.0
20260905112738 77 271 0.0 0.0 0.00 0.00 0.00 80 1016.0
20260905112638 77 271 0.0 0.0 0.00 0.00 0.00 80 1015.9
20260905112536 77 271 0.0 0.0 0.00 0.00 0.00 80 1016.0
20260905112434 77 271 0.0 0.0 0.00 0.00 0.00 81 1016.0
20260905112330 76 271 0.0 0.0 0.00 0.00 0.00 81 1015.9
20260905112230 76 271 0.0 0.0 0.00 0.00 0.00 81 1015.9
20260905112128 76 271 0.0 0.0 0.00 0.00 0.00 81 1015.8
20260905112030 76 271 0.0 0.0 0.00 0.00 0.00 81 1015.8
20260905111928 76 271 0.0 0.0 0.00 0.00 0.00 81 1015.9
20260905111819 76 271 0.0 0.0 0.00 0.00 0.00 80 1015.9
20260905111717 76 271 0.0 0.0 0.00 0.00 0.00 80 1015.8
20260905111617 76 271 0.0 0.0 0.00 0.00 0.00 81 1015.8
20260905111518 76 271 0.0 0.0 0.00 0.00 0.00 81 1015.8
20260905111418 76 271 0.0 0.0 0.00 0.00 0.00 81 1015.9
20260905111313 76 271 0.0 0.0 0.00 0.00 0.00 81 1015.8
20260905111211 76 271 0.0 0.0 0.00 0.00 0.00 81 1015.8
20260905111112 77 271 0.0 0.0 0.00 0.00 0.00 81 1015.8
20260905111010 76 271 0.0 0.0 0.00 0.00 0.00 80 1015.9
20260905110911 77 271 0.0 0.0 0.00 0.00 0.00 80 1015.9
20260905110806 77 271 0.0 0.0 0.00 0.00 0.00 80 1015.9
20260905110706 77 271 0.0 0.0 0.00 0.00 0.00 80 1015.8
20260905110606 77 271 0.0 0.0 0.00 0.00 0.00 80 1015.9
20260905110505 77 271 0.0 0.0 0.00 0.00 0.00 80 1015.9
20260905110406 77 271 0.0 0.0 0.00 0.00 0.00 80 1015.7
20260905110257 77 271 0.0 0.0 0.00 0.00 0.00 80 1015.7
20260905110155 77 271 0.0 0.0 0.00 0.00 0.00 80 1015.7
20260905110054 77 271 0.0 0.0 0.00 0.00 0.00 80 1015.7
20260905105956 77 271 0.0 0.0 0.00 0.00 0.00 80 1015.7
20260905105856 77 271 0.0 0.0 0.00 0.00 0.00 80 1015.7
20260905105754 77 271 0.0 0.0 0.00 0.00 0.00 80 1015.6
20260905105654 77 271 0.0 0.0 0.00 0.00 0.00 80 1015.6
20260905105553 77 271 0.0 0.0 0.00 0.00 0.00 80 1015.7
20260905105451 77 272 0.0 0.0 0.00 0.00 0.00 80 1015.6
20260905105350 77 272 0.0 0.0 0.00 0.00 0.00 80 1015.6
20260905105250 77 272 0.0 0.0 0.00 0.00 0.00 79 1015.6
20260905105147 77 272 0.0 0.0 0.00 0.00 0.00 79 1015.6
20260905105047 77 272 0.0 0.0 0.00 0.00 0.00 79 1015.6
20260905104945 77 272 0.0 0.0 0.00 0.00 0.00 79 1015.7
20260905104844 77 272 0.0 0.0 0.00 0.00 0.00 79 1015.7
20260905104738 77 272 0.0 0.0 0.00 0.00 0.00 79 1015.6
20260905104637 77 272 0.0 0.0 0.00 0.00 0.00 79 1015.6
20260905104538 77 272 0.0 0.0 0.00 0.00 0.00 79 1015.6
20260905104436 77 272 0.0 0.0 0.00 0.00 0.00 79 1015.6
20260905104333 77 272 0.0 0.0 0.00 0.00 0.00 79 1015.6
20260905104235 77 272 0.0 0.0 0.00 0.00 0.00 79 1015.6
20260905104131 77 272 0.0 0.0 0.00 0.00 0.00 79 1015.6
20260905104031 77 272 0.0 0.0 0.00 0.00 0.00 78 1015.6
20260905103930 77 272 0.0 0.0 0.00 0.00 0.00 79 1015.6
20260905103828 77 272 0.0 0.0 0.00 0.00 0.00 78 1015.5
20260905103728 77 272 0.0 0.0 0.00 0.00 0.00 78 1015.5
20260905103626 77 272 0.0 0.0 0.00 0.00 0.00 78 1015.5
20260905103524 77 272 0.0 0.0 0.00 0.00 0.00 78 1015.6
20260905103424 77 272 0.0 0.0 0.00 0.00 0.00 78 1015.6
20260905103322 77 272 0.0 0.0 0.00 0.00 0.00 78 1015.6
20260905103216 77 272 0.0 0.0 0.00 0.00 0.00 78 1015.6
20260905103115 77 272 0.0 0.0 0.00 0.00 0.00 78 1015.5
20260905103015 77 272 0.0 0.0 0.00 0.00 0.00 78 1015.6
20260905102913 77 272 0.0 0.0 0.00 0.00 0.00 78 1015.5
20260905102811 77 272 0.0 0.0 0.00 0.00 0.00 78 1015.6
20260905102705 77 271 0.0 0.0 0.00 0.00 0.00 78 1015.5
20260905102605 77 271 0.0 0.0 0.00 0.00 0.00 78 1015.6
20260905102505 77 271 0.0 0.0 0.00 0.00 0.00 78 1015.6
20260905102404 77 271 0.0 0.0 0.00 0.00 0.00 78 1015.6
20260905102306 77 271 0.0 0.0 0.00 0.00 0.00 78 1015.6
20260905102202 77 271 0.0 0.0 0.00 0.00 0.00 78 1015.6
20260905102102 77 271 0.0 0.0 0.00 0.00 0.00 78 1015.7
20260905102003 77 270 0.0 0.0 0.00 0.00 0.00 78 1015.7
20260905101902 77 271 0.0 0.0 0.00 0.00 0.00 78 1015.6
20260905101800 77 271 0.0 0.0 0.00 0.00 0.00 78 1015.7
20260905101654 77 271 0.0 0.0 0.00 0.00 0.00 78 1015.6
20260905101553 77 271 0.0 0.0 0.00 0.00 0.00 78 1015.6
20260905101454 77 271 0.0 0.0 0.00 0.00 0.00 78 1015.6
20260905101353 77 271 0.0 0.0 0.00 0.00 0.00 78 1015.6
20260905101249 77 271 0.0 0.0 0.00 0.00 0.00 78 1015.6
20260905101150 77 271 0.0 0.0 0.00 0.00 0.00 78 1015.6
20260905101047 77 271 0.0 0.0 0.00 0.00 0.00 78 1015.6
20260905100948 77 270 0.0 0.0 0.00 0.00 0.00 78 1015.6
20260905100846 77 270 0.0 0.0 0.00 0.00 0.00 78 1015.6
20260905100744 77 270 0.0 0.0 0.00 0.00 0.00 78 1015.5
20260905100638 77 293 0.0 0.0 0.00 0.00 0.00 78 1015.6
20260905100540 77 294 0.0 0.0 0.00 0.00 0.00 78 1015.5
20260905100439 77 259 0.0 0.0 0.00 0.00 0.00 78 1015.6
20260905100339 77 272 0.0 0.0 0.00 0.00 0.00 78 1015.5
20260905100237 77 272 0.0 0.0 0.00 0.00 0.00 78 1015.6
20260905100132 77 274 0.0 0.0 0.00 0.00 0.00 78 1015.5
20260905100031 77 274 0.0 0.0 0.00 0.00 0.00 78 1015.5
20260905095932 77 274 0.0 0.0 0.00 0.00 0.00 79 1015.5
20260905095830 77 274 0.0 0.0 0.00 0.00 0.00 78 1015.5
20260905095728 77 274 0.0 0.0 0.00 0.00 0.00 78 1015.5
20260905095627 77 275 0.0 0.0 0.00 0.00 0.00 79 1015.5
20260905095525 77 274 0.0 0.0 0.00 0.00 0.00 79 1015.4
20260905095426 77 275 0.0 0.0 0.00 0.00 0.00 79 1015.5
20260905095324 77 275 0.0 0.0 0.00 0.00 0.00 79 1015.5
20260905095222 77 275 0.0 0.0 0.00 0.00 0.00 79 1015.5
20260905095122 77 275 0.0 0.0 0.00 0.00 0.00 79 1015.5
20260905095019 77 275 0.0 0.0 0.00 0.00 0.00 79 1015.4
20260905094919 77 275 0.0 0.0 0.00 0.00 0.00 79 1015.4
20260905094817 77 274 0.0 0.0 0.00 0.00 0.00 79 1015.5
20260905094716 77 274 0.0 0.0 0.00 0.00 0.00 79 1015.4
20260905094604 77 274 0.0 0.0 0.00 0.00 0.00 79 1015.5
20260905094504 77 274 0.0 0.0 0.00 0.00 0.00 79 1015.4
20260905094405 77 274 0.0 0.0 0.00 0.00 0.00 79 1015.5
20260905094305 77 281 0.0 0.0 0.00 0.00 0.00 79 1015.5
20260905094205 77 281 0.0 0.0 0.00 0.00 0.00 79 1015.3
20260905094102 77 279 0.0 0.0 0.00 0.00 0.00 79 1015.4
20260905094000 77 279 0.0 0.0 0.00 0.00 0.00 79 1015.3
20260905093902 77 279 0.0 0.0 0.00 0.00 0.00 80 1015.3
20260905093801 77 280 0.0 0.0 0.00 0.00 0.00 80 1015.3
20260905093700 77 280 0.0 0.0 0.00 0.00 0.00 80 1015.4
20260905093559 77 280 0.0 0.0 0.00 0.00 0.00 80 1015.4
20260905093458 77 280 0.0 0.0 0.00 0.00 0.00 80 1015.3
20260905093357 77 280 0.0 0.0 0.00 0.00 0.00 80 1015.3
20260905093255 77 280 0.0 0.0 0.00 0.00 0.00 80 1015.3
20260905093154 77 280 0.0 0.0 0.00 0.00 0.00 80 1015.4
20260905093047 77 280 0.0 0.0 0.00 0.00 0.00 80 1015.4
20260905092947 77 280 0.0 0.0 0.00 0.00 0.00 80 1015.3
20260905092848 77 280 0.0 0.0 0.00 0.00 0.00 80 1015.3
20260905092745 77 280 0.0 0.0 0.00 0.00 0.00 80 1015.3
20260905092643 77 280 0.0 0.0 0.00 0.00 0.00 80 1015.3
20260905092542 77 280 0.0 0.0 0.00 0.00 0.00 80 1015.1
20260905092442 77 280 0.0 0.0 0.00 0.00 0.00 80 1015.3
20260905092342 77 280 0.0 0.0 0.00 0.00 0.00 80 1015.3
20260905092239 77 280 0.0 0.0 0.00 0.00 0.00 80 1015.1
20260905092137 77 280 0.0 0.0 0.00 0.00 0.00 80 1015.1
20260905092037 77 280 0.0 0.0 0.00 0.00 0.00 80 1015.1
20260905091936 77 280 0.0 0.0 0.00 0.00 0.00 80 1015.1
20260905091834 77 280 0.0 0.0 0.00 0.00 0.00 80 1015.1
20260905091734 77 280 0.0 0.0 0.00 0.00 0.00 80 1015.1
20260905091632 77 280 0.0 0.0 0.00 0.00 0.00 80 1015.3
20260905091526 77 280 0.0 0.0 0.00 0.00 0.00 80 1015.3
20260905091424 77 280 0.0 0.0 0.00 0.00 0.00 80 1015.4
20260905091324 77 280 0.0 0.0 0.00 0.00 0.00 80 1015.3
20260905091224 77 280 0.0 0.0 0.00 0.00 0.00 80 1015.3
20260905091122 77 280 0.0 0.0 0.00 0.00 0.00 80 1015.3
20260905091022 77 280 0.0 0.0 0.00 0.00 0.00 80 1015.1
20260905090920 77 280 0.0 0.0 0.00 0.00 0.00 80 1015.3
20260905090820 77 280 0.0 0.0 0.00 0.00 0.00 80 1015.3
20260905090717 77 280 0.0 0.0 0.00 0.00 0.00 80 1015.3
20260905090616 77 280 0.0 0.0 0.00 0.00 0.00 80 1015.3
20260905090516 77 279 0.0 0.0 0.00 0.00 0.00 80 1015.1
20260905090412 77 280 0.0 0.0 0.00 0.00 0.00 80 1015.3
20260905090311 77 280 0.0 0.0 0.00 0.00 0.00 80 1015.3
20260905090212 77 280 0.0 0.0 0.00 0.00 0.00 80 1015.4
20260905090109 77 280 0.0 0.0 0.00 0.00 0.00 80 1015.4
20260905090004 77 279 0.0 0.0 0.00 0.00 0.00 80 1015.4
20260905085905 77 279 0.0 0.0 0.00 0.00 0.00 80 1015.4
20260905085805 77 279 0.0 0.0 0.00 0.00 0.00 80 1015.3
20260905085705 77 279 0.0 0.0 0.00 0.00 0.00 80 1015.3
20260905085606 77 279 0.0 0.0 0.00 0.00 0.00 80 1015.4
20260905085506 77 279 0.0 0.0 0.00 0.00 0.00 80 1015.4
20260905085405 77 279 0.0 0.0 0.00 0.00 0.00 80 1015.4
20260905085306 77 279 0.0 0.0 0.00 0.00 0.00 80 1015.4
20260905085202 77 279 0.0 0.0 0.00 0.00 0.00 80 1015.4
20260905085103 77 280 0.0 0.0 0.00 0.00 0.00 80 1015.4
20260905085002 77 280 0.0 0.0 0.00 0.00 0.00 80 1015.4
20260905084902 77 280 0.0 0.0 0.00 0.00 0.00 80 1015.5
20260905084803 77 280 0.0 0.0 0.00 0.00 0.00 80 1015.6
20260905084702 77 280 0.0 0.0 0.00 0.00 0.00 80 1015.5
20260905084601 77 280 0.0 0.0 0.00 0.00 0.00 80 1015.5
20260905084501 77 280 0.0 0.0 0.00 0.00 0.00 80 1015.6
20260905084401 77 280 0.0 0.0 0.00 0.00 0.00 80 1015.6
20260905084256 77 280 0.0 0.0 0.00 0.00 0.00 80 1015.7
20260905084158 77 280 0.0 0.0 0.00 0.00 0.00 80 1015.6
20260905084056 77 280 0.0 0.0 0.00 0.00 0.00 80 1015.7
20260905083958 77 286 0.0 0.0 0.00 0.00 0.00 80 1015.6
20260905083856 77 286 0.0 0.0 0.00 0.00 0.00 80 1015.6
20260905083756 77 286 0.0 0.0 0.00 0.00 0.00 80 1015.7
20260905083652 77 286 0.0 0.0 0.00 0.00 0.00 80 1015.7
20260905083554 77 286 0.0 0.0 0.00 0.00 0.00 80 1015.7
20260905083450 77 286 0.0 0.0 0.00 0.00 0.00 80 1015.8
20260905083350 77 286 0.0 0.0 0.00 0.00 0.00 80 1015.7
20260905083252 77 286 0.0 0.0 0.00 0.00 0.00 80 1015.7
20260905083150 77 286 0.0 0.0 0.00 0.00 0.00 80 1015.7
20260905083052 77 286 0.0 0.0 0.00 0.00 0.00 80 1015.8
20260905082950 77 286 0.0 0.0 0.00 0.00 0.00 80 1015.8
20260905082852 77 286 0.0 0.0 0.00 0.00 0.00 80 1015.8
20260905082750 77 286 0.0 0.0 0.00 0.00 0.00 80 1015.7
20260905082646 77 286 0.0 0.0 0.00 0.00 0.00 80 1015.8
20260905082547 77 286 0.0 0.0 0.00 0.00 0.00 80 1015.8
20260905082445 77 286 0.0 0.0 0.00 0.00 0.00 80 1015.8
20260905082345 77 286 0.0 0.0 0.00 0.00 0.00 80 1015.8
20260905082243 77 286 0.0 0.0 0.00 0.00 0.00 80 1015.9
20260905082142 77 286 0.0 0.0 0.00 0.00 0.00 80 1015.9
20260905082041 77 286 0.0 0.0 0.00 0.00 0.00 80 1015.8
20260905081939 77 286 0.0 0.0 0.00 0.00 0.00 80 1015.8
20260905081838 77 286 0.0 0.0 0.00 0.00 0.00 80 1015.8
20260905081736 77 286 0.0 0.0 0.00 0.00 0.00 80 1015.8
20260905081635 77 286 0.0 0.0 0.00 0.00 0.00 80 1015.8
20260905081534 77 286 0.0 0.0 0.00 0.00 0.00 80 1015.8
20260905081436 77 286 0.0 0.0 0.00 0.00 0.00 80 1015.8
20260905081335 77 286 0.0 0.0 0.00 0.00 0.00 80 1015.9
20260905081234 77 286 0.0 0.0 0.00 0.00 0.00 80 1015.8
20260905081132 77 286 0.0 0.0 0.00 0.00 0.00 80 1015.8
20260905081027 77 286 0.0 0.0 0.00 0.00 0.00 80 1015.9
20260905080927 77 286 0.0 0.0 0.00 0.00 0.00 80 1015.9
20260905080827 77 286 0.0 0.0 0.00 0.00 0.00 80 1016.0
20260905080727 77 286 0.0 0.0 0.00 0.00 0.00 80 1016.0
20260905080626 77 286 0.0 0.0 0.00 0.00 0.00 80 1016.0
20260905080525 77 286 0.0 0.0 0.00 0.00 0.00 80 1015.9
20260905080422 77 286 0.0 0.0 0.00 0.00 0.00 80 1016.0
20260905080322 77 286 0.0 0.0 0.00 0.00 0.00 80 1015.9
20260905080222 77 286 0.0 0.0 0.00 0.00 0.00 80 1016.0
20260905080120 77 286 0.0 0.0 0.00 0.00 0.00 80 1016.0
20260905080021 77 286 0.0 0.0 0.00 0.00 0.00 80 1016.0
20260905075920 77 286 0.0 0.0 0.00 0.00 0.00 80 1015.9
20260905075821 77 286 0.0 0.0 0.00 0.00 0.00 80 1015.9
20260905075720 77 286 0.0 0.0 0.00 0.00 0.00 80 1016.0
20260905075619 77 286 0.0 0.0 0.00 0.00 0.00 80 1016.1
20260905075517 77 286 0.0 0.0 0.00 0.00 0.00 80 1016.0
20260905075415 77 286 0.0 0.0 0.00 0.00 0.00 80 1016.1
20260905075313 76 286 0.0 0.0 0.00 0.00 0.00 80 1016.1
20260905075213 76 286 0.0 0.0 0.00 0.00 0.00 80 1016.0
20260905075112 77 286 0.0 0.0 0.00 0.00 0.00 80 1016.1
20260905075013 77 286 0.0 0.0 0.00 0.00 0.00 80 1016.1
20260905074911 77 286 0.0 0.0 0.00 0.00 0.00 80 1016.1
20260905074812 77 286 0.0 0.0 0.00 0.00 0.00 80 1016.1
20260905074709 76 286 0.0 0.0 0.00 0.00 0.00 80 1016.1
20260905074610 77 286 0.0 0.0 0.00 0.00 0.00 80 1016.2
20260905074507 77 286 0.0 0.0 0.00 0.00 0.00 80 1016.2
20260905074408 77 286 0.0 0.0 0.00 0.00 0.00 80 1016.1
20260905074306 77 286 0.0 0.0 0.00 0.00 0.00 80 1016.1
20260905074207 77 286 0.0 0.0 0.00 0.00 0.00 80 1016.1
20260905074108 77 286 0.0 0.0 0.00 0.00 0.00 80 1016.1
20260905074006 77 286 0.0 0.0 0.00 0.00 0.00 80 1016.1
20260905073907 77 286 0.0 0.0 0.00 0.00 0.00 80 1016.2
20260905073805 77 287 0.0 0.0 0.00 0.00 0.00 80 1016.2
20260905073704 77 287 0.0 0.0 0.00 0.00 0.00 80 1016.3
20260905073605 77 287 0.0 0.0 0.00 0.00 0.00 80 1016.2
20260905073505 77 287 0.0 0.0 0.00 0.00 0.00 80 1016.2
20260905073404 77 287 0.0 0.0 0.00 0.00 0.00 80 1016.2
20260905073305 77 284 0.0 0.0 0.00 0.00 0.00 80 1016.3
20260905073204 77 284 0.0 0.0 0.00 0.00 0.00 80 1016.3
20260905073105 77 281 0.0 0.0 0.00 0.00 0.00 80 1016.3
20260905073007 77 271 0.0 0.0 0.00 0.00 0.00 80 1016.3
20260905072905 77 265 0.0 0.0 0.00 0.00 0.00 80 1016.3
20260905072805 77 259 0.0 0.0 0.00 0.00 0.00 80 1016.2
20260905072705 77 252 0.0 0.0 0.00 0.00 0.00 80 1016.2
20260905072606 77 175 0.0 0.0 0.00 0.00 0.00 80 1016.3
20260905072504 77 175 0.0 0.0 0.00 0.00 0.00 80 1016.3
20260905072406 77 175 0.0 0.0 0.00 0.00 0.00 80 1016.2
20260905072306 77 175 0.0 0.0 0.00 0.00 0.00 81 1016.2
20260905072204 77 175 0.0 0.0 0.00 0.00 0.00 81 1016.2
20260905072104 77 175 0.0 0.0 0.00 0.00 0.00 81 1016.2
20260905072005 77 175 0.0 0.0 0.00 0.00 0.00 81 1016.2
20260905071905 77 175 0.0 0.0 0.00 0.00 0.00 80 1016.2
20260905071806 77 175 0.0 0.0 0.00 0.00 0.00 80 1016.3
20260905071704 77 175 0.0 0.0 0.00 0.00 0.00 80 1016.3
20260905071605 77 175 0.0 0.0 0.00 0.00 0.00 80 1016.2
20260905071506 77 175 0.0 0.0 0.00 0.00 0.00 80 1016.3
20260905071405 77 175 0.0 0.0 0.00 0.00 0.00 80 1016.3
20260905071304 77 175 0.0 0.0 0.00 0.00 0.00 80 1016.3
20260905071205 77 175 0.0 0.0 0.00 0.00 0.00 80 1016.3
20260905071106 77 175 0.0 0.0 0.00 0.00 0.00 80 1016.3
20260905071000 77 175 0.0 0.0 0.00 0.00 0.00 80 1016.3
20260905070901 77 175 0.0 0.0 0.00 0.00 0.00 80 1016.3
20260905070802 77 175 0.0 0.0 0.00 0.00 0.00 80 1016.4
20260905070700 77 175 0.0 0.0 0.00 0.00 0.00 80 1016.3
20260905070602 77 175 0.0 0.0 0.00 0.00 0.00 80 1016.3
20260905070501 77 175 0.0 0.0 0.00 0.00 0.00 80 1016.3
20260905070400 77 175 0.0 0.0 0.00 0.00 0.00 80 1016.3
20260905070301 77 175 0.0 0.0 0.00 0.00 0.00 80 1016.4
20260905070200 77 175 0.0 0.0 0.00 0.00 0.00 80 1016.4
20260905070000 77 175 0.0 0.0 0.00 0.00 0.00 80 1016.4
20260905065900 77 175 0.0 0.0 0.00 0.00 0.00 80 1016.4
20260905065801 77 175 0.0 0.0 0.00 0.00 0.00 80 1016.4
20260905065700 77 175 0.0 0.0 0.00 0.00 0.00 80 1016.4
20260905065601 77 175 0.0 0.0 0.00 0.00 0.00 80 1016.5
20260905065500 77 175 0.0 0.0 0.00 0.00 0.00 80 1016.4
20260905065401 77 175 0.0 0.0 0.00 0.00 0.00 80 1016.4
20260905065302 77 175 0.0 0.0 0.00 0.00 0.00 80 1016.5
20260905065201 77 175 0.0 0.0 0.00 0.00 0.00 80 1016.5
20260905065102 77 175 0.0 0.0 0.00 0.00 0.00 80 1016.5
20260905065000 77 175 0.0 0.0 0.00 0.00 0.00 80 1016.5
20260905064901 77 175 0.0 0.0 0.00 0.00 0.00 80 1016.5
20260905064801 78 175 0.0 0.0 0.00 0.00 0.00 80 1016.6
20260905064702 78 175 0.0 0.0 0.00 0.00 0.00 80 1016.5
20260905064601 78 175 0.0 0.0 0.00 0.00 0.00 80 1016.5
20260905064502 78 175 0.0 0.0 0.00 0.00 0.00 80 1016.5
20260905064401 78 175 0.0 0.0 0.00 0.00 0.00 80 1016.5
20260905064301 78 175 0.0 0.0 0.00 0.00 0.00 80 1016.6
20260905064201 78 175 0.0 0.0 0.00 0.00 0.00 80 1016.5
20260905064100 78 175 0.0 0.0 0.00 0.00 0.00 80 1016.6
20260905064000 78 175 0.0 0.0 0.00 0.00 0.00 80 1016.6
20260905063900 78 175 0.0 0.0 0.00 0.00 0.00 79 1016.6
20260905063802 78 175 0.0 0.0 0.00 0.00 0.00 79 1016.6
20260905063657 78 175 0.0 0.0 0.00 0.00 0.00 79 1016.7
20260905063556 78 175 0.0 0.0 0.00 0.00 0.00 79 1016.7
20260905063457 78 175 0.0 0.0 0.00 0.00 0.00 79 1016.7
20260905063356 78 175 0.0 0.0 0.00 0.00 0.00 79 1016.7
20260905063257 78 175 0.0 0.0 0.00 0.00 0.00 79 1016.7
20260905063158 78 175 0.0 0.0 0.00 0.00 0.00 79 1016.7
20260905063057 78 175 0.0 0.0 0.00 0.00 0.00 79 1016.9
20260905062958 78 175 0.0 0.0 0.00 0.00 0.00 78 1016.9
20260905062857 78 175 0.0 0.0 0.00 0.00 0.00 78 1016.7
20260905062757 78 175 0.0 0.0 0.00 0.00 0.00 78 1016.9
20260905062657 78 175 0.0 0.0 0.00 0.00 0.00 78 1016.9
20260905062558 78 175 0.0 0.0 0.00 0.00 0.00 78 1016.9
20260905062458 78 175 0.0 0.0 0.00 0.00 0.00 78 1016.9
20260905062356 78 175 0.0 0.0 0.00 0.00 0.00 78 1016.9
20260905062257 78 175 0.0 0.0 0.00 0.00 0.00 78 1016.9
20260905062158 78 175 0.0 0.0 0.00 0.00 0.00 78 1016.9
20260905062057 78 175 0.0 0.0 0.00 0.00 0.00 78 1017.0
20260905061958 78 175 0.0 0.0 0.00 0.00 0.00 78 1017.0
20260905061857 78 175 0.0 0.0 0.00 0.00 0.00 78 1017.0
20260905061758 78 175 0.0 0.0 0.00 0.00 0.00 78 1017.1
20260905061656 78 175 0.0 0.0 0.00 0.00 0.00 78 1017.0
20260905061557 78 175 0.0 0.0 0.00 0.00 0.00 78 1017.7
20260905061456 78 175 0.0 0.0 0.00 0.00 0.00 78 1017.1
20260905061357 78 175 0.0 0.0 0.00 0.00 0.00 78 1017.1
20260905061257 78 175 0.0 0.0 0.00 0.00 0.00 78 1017.2
20260905061158 78 175 0.0 0.0 0.00 0.00 0.00 78 1017.1
20260905061057 78 175 0.0 0.0 0.00 0.00 0.00 78 1017.2
20260905060955 78 175 0.0 0.0 0.00 0.00 0.00 78 1017.2
20260905060856 78 175 0.0 0.0 0.00 0.00 0.00 78 1017.2
20260905060755 78 175 0.0 0.0 0.00 0.00 0.00 78 1017.2
20260905060656 78 175 0.0 0.0 0.00 0.00 0.00 78 1017.1
20260905060555 78 175 0.0 0.0 0.00 0.00 0.00 78 1017.3
20260905060457 78 175 0.0 0.0 0.00 0.00 0.00 78 1017.3
20260905060352 78 175 0.0 0.0 0.00 0.00 0.00 78 1017.2
20260905060251 79 175 0.0 0.0 0.00 0.00 0.00 78 1017.3
20260905060152 78 175 0.0 0.0 0.00 0.00 0.00 78 1017.3
20260905060052 78 175 0.0 0.0 0.00 0.00 0.00 78 1017.3
20260905055953 79 175 0.0 0.0 0.00 0.00 0.00 78 1017.3
20260905055851 78 175 0.0 0.0 0.00 0.00 0.00 78 1017.4
20260905055751 78 175 0.0 0.0 0.00 0.00 0.00 78 1017.3
20260905055651 78 175 0.0 0.0 0.00 0.00 0.00 78 1017.4
20260905055551 78 175 0.0 0.0 0.00 0.00 0.00 78 1017.4
20260905055452 78 175 0.0 0.0 0.00 0.00 0.00 78 1017.4
20260905055351 78 175 0.0 0.0 0.00 0.00 0.00 78 1017.3
20260905055252 78 175 0.0 0.0 0.00 0.00 0.00 78 1017.4
20260905055152 78 175 0.0 0.0 0.00 0.00 0.00 78 1017.4
20260905055051 79 175 0.0 0.0 0.00 0.00 0.00 78 1017.5
20260905054953 79 175 0.0 0.0 0.00 0.00 0.00 78 1017.4
20260905054851 78 175 0.0 0.0 0.00 0.00 0.00 78 1017.5
20260905054752 79 175 0.0 0.0 0.00 0.00 0.00 78 1017.4
20260905054650 78 175 0.0 0.0 0.00 0.00 0.00 78 1017.5
20260905054550 78 175 0.0 0.0 0.00 0.00 0.00 78 1017.5
20260905054452 78 175 0.0 0.0 0.00 0.00 0.00 77 1017.4
20260905054351 78 175 0.0 0.0 0.00 0.00 0.00 77 1017.6
20260905054251 78 175 0.0 0.0 0.00 0.00 0.00 77 1017.5
20260905054152 78 175 0.0 0.0 0.00 0.00 0.00 77 1017.6
20260905054052 78 175 0.0 0.0 0.00 0.00 0.00 77 1017.5
20260905053950 78 175 0.0 0.0 0.00 0.00 0.00 77 1017.6
20260905053850 78 175 0.0 0.0 0.00 0.00 0.00 77 1017.6
20260905053751 79 175 0.0 0.0 0.00 0.00 0.00 77 1017.6
20260905053651 78 175 0.0 0.0 0.00 0.00 0.00 77 1017.5
20260905053551 78 175 0.0 0.0 0.00 0.00 0.00 77 1017.6
20260905053451 79 175 0.0 0.0 0.00 0.00 0.00 77 1017.6
20260905053351 78 175 0.0 0.0 0.00 0.00 0.00 77 1017.6
20260905053252 78 175 0.0 0.0 0.00 0.00 0.00 77 1017.6
20260905053153 78 175 0.0 0.0 0.00 0.00 0.00 77 1017.5
20260905053048 79 175 0.0 0.0 0.00 0.00 0.00 77 1017.6
20260905052948 79 175 0.0 0.0 0.00 0.00 0.00 77 1017.5
20260905052848 79 175 0.0 0.0 0.00 0.00 0.00 77 1017.6
20260905052749 79 175 0.0 0.0 0.00 0.00 0.00 77 1017.6
20260905052646 79 175 0.0 0.0 0.00 0.00 0.00 77 1017.6
20260905052547 79 175 0.0 0.0 0.00 0.00 0.00 77 1017.5
20260905052445 79 175 0.0 0.0 0.00 0.00 0.00 77 1017.6
20260905052345 79 175 0.0 0.0 0.00 0.00 0.00 77 1017.5
20260905052245 79 175 0.0 0.0 0.00 0.00 0.00 77 1017.6
20260905052145 79 175 0.0 0.0 0.00 0.00 0.00 77 1017.6
20260905052046 79 175 0.0 0.0 0.00 0.00 0.00 77 1017.6
20260905051944 79 175 0.0 0.0 0.00 0.00 0.00 77 1017.7
20260905051842 79 175 0.0 0.0 0.00 0.00 0.00 77 1017.6
20260905051740 79 175 0.0 0.0 0.00 0.00 0.00 77 1017.6
20260905051639 79 175 0.0 0.0 0.00 0.00 0.00 77 1017.7
20260905051539 79 175 0.0 0.0 0.00 0.00 0.00 77 1017.7
20260905051436 79 175 0.0 0.0 0.00 0.00 0.00 77 1017.7
20260905051333 79 175 0.0 0.0 0.00 0.00 0.00 77 1017.7
20260905051230 79 175 0.0 0.0 0.00 0.00 0.00 77 1017.7
20260905051130 79 175 0.0 0.0 0.00 0.00 0.00 77 1017.7
20260905051029 79 175 0.0 0.0 0.00 0.00 0.00 77 1017.8
20260905050925 79 175 0.0 0.0 0.00 0.00 0.00 77 1017.6
20260905050821 79 175 0.0 0.0 0.00 0.00 0.00 77 1017.7
20260905050718 79 175 0.0 0.0 0.00 0.00 0.00 77 1017.7
20260905050618 79 175 0.0 0.0 0.00 0.00 0.00 77 1017.7
20260905050516 79 175 0.0 0.0 0.00 0.00 0.00 77 1017.6
20260905050412 79 175 0.0 0.0 0.00 0.00 0.00 77 1017.6
20260905050313 79 175 0.0 0.0 0.00 0.00 0.00 77 1017.7
20260905050214 79 175 0.0 0.0 0.00 0.00 0.00 77 1017.8
20260905050112 79 175 0.0 0.0 0.00 0.00 0.00 77 1017.8
20260905050012 79 175 0.0 0.0 0.00 0.00 0.00 77 1017.8
20260905045913 79 175 0.0 0.0 0.00 0.00 0.00 77 1017.7
20260905045807 79 175 0.0 0.0 0.00 0.00 0.00 77 1017.8
20260905045706 79 175 0.0 0.0 0.00 0.00 0.00 76 1017.9
20260905045606 79 175 0.0 0.0 0.00 0.00 0.00 76 1017.8
20260905045506 79 175 0.0 0.0 0.00 0.00 0.00 76 1017.8
20260905045403 79 175 0.0 0.0 0.00 0.00 0.00 76 1017.8
20260905045259 79 175 0.0 0.0 0.00 0.00 0.00 76 1017.8
20260905045156 79 175 0.0 0.0 0.00 0.00 0.00 76 1017.9
20260905045057 78 175 0.0 0.0 0.00 0.00 0.00 76 1017.9
20260905044958 79 175 0.0 0.0 0.00 0.00 0.00 75 1017.8
20260905044856 79 175 0.0 0.0 0.00 0.00 0.00 74 1017.9
20260905044757 78 175 0.0 0.0 0.00 0.00 0.00 74 1017.9
20260905044654 78 175 0.0 0.0 0.00 0.00 0.00 74 1017.9
20260905044556 79 175 0.0 0.0 0.00 0.00 0.00 74 1017.8
20260905044453 79 175 0.0 0.0 0.00 0.00 0.00 74 1017.9
20260905044352 78 175 0.0 0.0 0.00 0.00 0.00 74 1017.9
20260905044248 78 175 0.0 0.0 0.00 0.00 0.00 74 1017.9
20260905044144 79 175 0.0 0.0 0.00 0.00 0.00 74 1017.9
20260905044044 79 175 0.0 0.0 0.00 0.00 0.00 74 1017.8
20260905043942 79 175 0.0 0.0 0.00 0.00 0.00 75 1017.8
20260905043840 79 175 0.0 0.0 0.00 0.00 0.00 75 1017.8
20260905043740 79 175 0.0 0.0 0.00 0.00 0.00 75 1017.9
20260905043641 79 175 0.0 0.0 0.00 0.00 0.00 74 1017.8
20260905043541 79 175 0.0 0.0 0.00 0.00 0.00 74 1017.8
20260905043440 79 175 0.0 0.0 0.00 0.00 0.00 74 1017.8
20260905043339 79 175 0.0 0.0 0.00 0.00 0.00 74 1017.8
20260905043239 79 175 0.0 0.0 0.00 0.00 0.00 74 1017.9
20260905043138 78 175 0.0 0.0 0.00 0.00 0.00 74 1017.8
20260905043040 79 175 0.0 0.0 0.00 0.00 0.00 73 1017.8
20260905042937 79 175 0.0 0.0 0.00 0.00 0.00 73 1017.8
20260905042836 79 175 0.0 0.0 0.00 0.00 0.00 73 1017.8
20260905042735 79 175 0.0 0.0 0.00 0.00 0.00 73 1017.9
20260905042632 79 175 0.0 0.0 0.00 0.00 0.00 73 1017.9
20260905042533 79 175 0.0 0.0 0.00 0.00 0.00 73 1017.9
20260905042430 79 175 0.0 0.0 0.00 0.00 0.00 73 1017.8
20260905042331 79 175 0.0 0.0 0.00 0.00 0.00 73 1017.8
20260905042229 79 175 0.0 0.0 0.00 0.00 0.00 72 1017.8
20260905042127 79 175 0.0 0.0 0.00 0.00 0.00 72 1017.8
20260905042026 79 175 0.0 0.0 0.00 0.00 0.00 72 1017.8
20260905041925 79 175 0.0 0.0 0.00 0.00 0.00 72 1017.8
20260905041824 79 175 0.0 0.0 0.00 0.00 0.00 72 1017.9
20260905041723 79 175 0.0 0.0 0.00 0.00 0.00 72 1017.8
20260905041620 79 175 0.0 0.0 0.00 0.00 0.00 72 1017.8
20260905041520 79 175 0.0 0.0 0.00 0.00 0.00 72 1017.8
20260905041419 79 175 0.0 0.0 0.00 0.00 0.00 72 1017.8
20260905041317 79 175 0.0 0.0 0.00 0.00 0.00 72 1017.9
20260905041217 80 175 0.0 0.0 0.00 0.00 0.00 72 1017.8
20260905041114 80 175 0.0 0.0 0.00 0.00 0.00 72 1017.8
20260905041015 80 175 0.0 0.0 0.00 0.00 0.00 72 1017.9
20260905040912 80 175 0.0 0.0 0.00 0.00 0.00 72 1017.9
20260905040814 80 175 0.0 0.0 0.00 0.00 0.00 71 1017.8
20260905040712 80 175 0.0 0.0 0.00 0.00 0.00 72 1017.9
20260905040613 80 177 0.0 0.0 0.00 0.00 0.00 71 1017.8
20260905040510 80 206 0.0 0.0 0.00 0.00 0.00 71 1017.8
20260905040410 80 263 0.0 0.0 0.00 0.00 0.00 71 1017.7
20260905040312 80 263 0.0 0.0 0.00 0.00 0.00 71 1017.7
20260905040210 80 263 0.0 0.0 0.00 0.00 0.00 71 1017.8
20260905040109 80 263 0.0 0.0 0.00 0.00 0.00 70 1017.8
20260905040009 80 263 0.0 0.0 0.00 0.00 0.00 70 1017.8
20260905035909 80 263 0.0 0.0 0.00 0.00 0.00 70 1017.7
20260905035809 80 263 0.0 0.0 0.00 0.00 0.00 70 1017.7
20260905035708 80 263 0.0 0.0 0.00 0.00 0.00 70 1017.8
20260905035608 80 263 0.0 0.0 0.00 0.00 0.00 70 1017.7
20260905035508 80 263 0.0 0.0 0.00 0.00 0.00 70 1017.6
20260905035409 80 263 0.0 0.0 0.00 0.00 0.00 70 1017.7
20260905035301 80 263 0.0 0.0 0.00 0.00 0.00 70 1017.7
20260905035200 80 263 0.0 0.0 0.00 0.00 0.00 69 1017.6
20260905035101 80 263 0.0 0.0 0.00 0.00 0.00 69 1017.6
20260905035001 80 263 0.0 0.0 0.00 0.00 0.00 69 1017.6
20260905034901 80 263 0.0 0.0 0.00 0.00 0.00 68 1017.6
20260905034802 80 263 0.0 0.0 0.00 0.00 0.00 68 1017.6
20260905034701 80 263 0.0 0.0 0.00 0.00 0.00 68 1017.5
20260905034600 80 263 0.0 0.0 0.00 0.00 0.00 68 1017.6
20260905034500 80 263 0.0 0.0 0.00 0.00 0.00 68 1017.6
20260905034400 80 263 0.0 0.0 0.00 0.00 0.00 68 1017.6
20260905034300 80 263 0.0 0.0 0.00 0.00 0.00 68 1017.6
20260905034200 80 263 0.0 0.0 0.00 0.00 0.00 68 1017.6
20260905034101 80 263 0.0 0.0 0.00 0.00 0.00 68 1017.6
20260905034002 80 263 0.0 0.0 0.00 0.00 0.00 67 1017.6
20260905033900 80 263 0.0 0.0 0.00 0.00 0.00 67 1017.6
20260905033802 80 263 0.0 0.0 0.00 0.00 0.00 67 1017.5
20260905033701 80 263 0.0 0.0 0.00 0.00 0.00 67 1017.6
20260905033602 80 263 0.0 0.0 0.00 0.00 0.00 67 1017.6
20260905033500 80 263 0.0 0.0 0.00 0.00 0.00 67 1017.5
20260905033402 80 263 0.0 0.0 0.00 0.00 0.00 67 1017.5
20260905033301 80 263 0.0 0.0 0.00 0.00 0.00 67 1017.5
20260905033200 80 263 0.0 0.0 0.00 0.00 0.00 67 1017.5
20260905033101 80 263 0.0 0.0 0.00 0.00 0.00 67 1017.5
20260905033000 80 263 0.0 0.0 0.00 0.00 0.00 67 1017.5
20260905032901 80 263 0.0 0.0 0.00 0.00 0.00 67 1017.5
20260905032801 80 263 0.0 0.0 0.00 0.00 0.00 67 1017.4
20260905032701 80 263 0.0 0.0 0.00 0.00 0.00 68 1017.4
20260905032601 80 263 0.0 0.0 0.00 0.00 0.00 68 1017.5
20260905032500 80 263 0.0 0.0 0.00 0.00 0.00 68 1017.4
20260905032400 80 263 0.0 0.0 0.00 0.00 0.00 68 1017.4
20260905032301 80 263 0.0 0.0 0.00 0.00 0.00 68 1017.5
20260905032201 80 263 0.0 0.0 0.00 0.00 0.00 68 1017.4
20260905032101 80 263 0.0 0.0 0.00 0.00 0.00 68 1017.4
20260905031958 80 263 0.0 0.0 0.00 0.00 0.00 68 1017.4
20260905031857 80 263 0.0 0.0 0.00 0.00 0.00 67 1017.4
20260905031758 80 263 0.0 0.0 0.00 0.00 0.00 67 1017.3
20260905031656 80 263 0.0 0.0 0.00 0.00 0.00 67 1017.3
20260905031557 80 263 0.0 0.0 0.00 0.00 0.00 67 1017.3
20260905031457 80 263 0.0 0.0 0.00 0.00 0.00 67 1017.3
20260905031357 80 263 0.0 0.0 0.00 0.00 0.00 67 1017.3
20260905031256 80 263 0.0 0.0 0.00 0.00 0.00 68 1017.4
20260905031157 80 263 0.0 0.0 0.00 0.00 0.00 68 1017.4
20260905031056 80 263 0.0 0.0 0.00 0.00 0.00 67 1017.4
20260905030956 80 263 0.0 0.0 0.00 0.00 0.00 67 1017.3
20260905030857 80 263 0.0 0.0 0.00 0.00 0.00 67 1017.4
20260905030756 80 263 0.0 0.0 0.00 0.00 0.00 67 1017.4
20260905030658 80 263 0.0 0.0 0.00 0.00 0.00 67 1017.4
20260905030558 80 263 0.0 0.0 0.00 0.00 0.00 67 1017.4
20260905030456 80 263 0.0 0.0 0.00 0.00 0.00 68 1017.4
20260905030358 80 263 0.0 0.0 0.00 0.00 0.00 67 1017.4
20260905030258 80 263 0.0 0.0 0.00 0.00 0.00 67 1017.3
20260905030157 80 263 0.0 0.0 0.00 0.00 0.00 67 1017.3
20260905030058 80 263 0.0 0.0 0.00 0.00 0.00 67 1017.4
20260905025956 80 263 0.0 0.0 0.00 0.00 0.00 67 1017.3
20260905025858 80 263 0.0 0.0 0.00 0.00 0.00 67 1017.2
20260905025758 80 263 0.0 0.0 0.00 0.00 0.00 67 1017.2
20260905025657 80 263 0.0 0.0 0.00 0.00 0.00 67 1017.1
20260905025557 80 263 0.0 0.0 0.00 0.00 0.00 67 1017.2
20260905025457 80 263 0.0 0.0 0.00 0.00 0.00 66 1017.3
20260905025353 80 263 0.0 0.0 0.00 0.00 0.00 66 1017.2
20260905025254 80 263 0.0 0.0 0.00 0.00 0.00 66 1017.3
20260905025152 80 263 0.0 0.0 0.00 0.00 0.00 66 1017.2
20260905025054 80 263 0.0 0.0 0.00 0.00 0.00 66 1017.2
20260905024952 80 263 0.0 0.0 0.00 0.00 0.00 66 1017.3
20260905024852 80 263 0.0 0.0 0.00 0.00 0.00 65 1017.3
20260905024751 80 263 0.0 0.0 0.00 0.00 0.00 65 1017.3
20260905024651 80 263 0.0 0.0 0.00 0.00 0.00 65 1017.3
20260905024552 80 263 0.0 0.0 0.00 0.00 0.00 65 1017.3
20260905024451 80 263 0.0 0.0 0.00 0.00 0.00 65 1017.3
20260905024351 80 263 0.0 0.0 0.00 0.00 0.00 65 1017.2
20260905024251 80 263 0.0 0.0 0.00 0.00 0.00 65 1017.2
20260905024148 80 263 0.0 0.0 0.00 0.00 0.00 65 1017.2
20260905024047 80 263 0.0 0.0 0.00 0.00 0.00 64 1017.1
20260905023948 80 263 0.0 0.0 0.00 0.00 0.00 65 1017.2
20260905023846 80 263 0.0 0.0 0.00 0.00 0.00 65 1017.1
20260905023743 80 263 0.0 0.0 0.00 0.00 0.00 65 1017.1
20260905023643 80 263 0.0 0.0 0.00 0.00 0.00 65 1017.1
20260905023541 80 263 0.0 0.0 0.00 0.00 0.00 65 1017.1
20260905023438 80 263 0.0 0.0 0.00 0.00 0.00 65 1017.1
20260905023338 80 263 0.0 0.0 0.00 0.00 0.00 65 1017.1
20260905023240 80 263 0.0 0.0 0.00 0.00 0.00 65 1017.0
20260905023136 80 263 0.0 0.0 0.00 0.00 0.00 65 1017.1
20260905023036 80 263 0.0 0.0 0.00 0.00 0.00 65 1017.0
20260905022934 80 263 0.0 0.0 0.00 0.00 0.00 65 1017.0
20260905022834 80 263 0.0 0.0 0.00 0.00 0.00 64 1017.0
20260905022733 80 263 0.0 0.0 0.00 0.00 0.00 65 1017.0
20260905022634 80 263 0.0 0.0 0.00 0.00 0.00 64 1017.0
20260905022533 80 263 0.0 0.0 0.00 0.00 0.00 65 1017.0
20260905022431 80 263 0.0 0.0 0.00 0.00 0.00 65 1017.0
20260905022330 80 263 0.0 0.0 0.00 0.00 0.00 65 1017.0
20260905022230 80 263 0.0 0.0 0.00 0.00 0.00 65 1017.0
20260905022130 80 263 0.0 0.0 0.00 0.00 0.00 65 1017.0
20260905022026 80 263 0.0 0.0 0.00 0.00 0.00 65 1017.0
20260905021927 80 263 0.0 0.0 0.00 0.00 0.00 65 1017.0
20260905021824 80 263 0.0 0.0 0.00 0.00 0.00 65 1017.0
20260905021726 80 263 0.0 0.0 0.00 0.00 0.00 66 1017.1
20260905021622 80 263 0.0 0.0 0.00 0.00 0.00 65 1017.0
20260905021525 80 263 0.0 0.0 0.00 0.00 0.00 65 1017.0
20260905021421 80 263 0.0 0.0 0.00 0.00 0.00 65 1016.9
20260905021321 80 263 0.0 0.0 0.00 0.00 0.00 65 1016.9
20260905021220 80 263 0.0 0.0 0.00 0.00 0.00 65 1017.0
20260905021121 80 263 0.0 0.0 0.00 0.00 0.00 65 1016.9
20260905021025 80 263 0.0 0.0 0.00 0.00 0.00 65 1016.9
20260905020916 80 263 0.0 0.0 0.00 0.00 0.00 65 1016.9
20260905020816 80 263 0.0 0.0 0.00 0.00 0.00 65 1017.0
20260905020715 80 263 0.0 0.0 0.00 0.00 0.00 65 1016.9
20260905020613 80 263 0.0 0.0 0.00 0.00 0.00 65 1017.0
20260905020510 80 263 0.0 0.0 0.00 0.00 0.00 65 1017.0
20260905020407 80 263 0.0 0.0 0.00 0.00 0.00 65 1017.0
20260905020308 80 263 0.0 0.0 0.00 0.00 0.00 65 1017.0
20260905020207 80 263 0.0 0.0 0.00 0.00 0.00 65 1017.1
20260905020107 80 263 0.0 0.0 0.00 0.00 0.00 65 1017.0
20260905020004 80 263 0.0 0.0 0.00 0.00 0.00 65 1017.0
20260905015903 80 263 0.0 0.0 0.00 0.00 0.00 66 1017.0
20260905015802 80 263 0.0 0.0 0.00 0.00 0.00 65 1017.1
20260905015703 80 263 0.0 0.0 0.00 0.00 0.00 66 1017.1
20260905015601 80 263 0.0 0.0 0.00 0.00 0.00 66 1017.1
20260905015459 80 263 0.0 0.0 0.00 0.00 0.00 65 1017.1
20260905015355 80 263 0.0 0.0 0.00 0.00 0.00 66 1017.2
20260905015254 80 263 0.0 0.0 0.00 0.00 0.00 66 1017.2
20260905015153 80 263 0.0 0.0 0.00 0.00 0.00 66 1017.2
20260905015050 80 263 0.0 0.0 0.00 0.00 0.00 66 1017.3
20260905014948 80 263 0.0 0.0 0.00 0.00 0.00 66 1017.1
20260905014846 80 263 0.0 0.0 0.00 0.00 0.00 66 1017.1
20260905014744 80 263 0.0 0.0 0.00 0.00 0.00 66 1017.2
20260905014644 80 263 0.0 0.0 0.00 0.00 0.00 66 1017.1
20260905014544 80 263 0.0 0.0 0.00 0.00 0.00 66 1017.2
20260905014440 80 263 0.0 0.0 0.00 0.00 0.00 66 1017.2
20260905014337 80 263 0.0 0.0 0.00 0.00 0.00 66 1017.2
20260905014234 80 263 0.0 0.0 0.00 0.00 0.00 66 1017.1
20260905014136 80 263 0.0 0.0 0.00 0.00 0.00 66 1017.1
20260905014033 80 263 0.0 0.0 0.00 0.00 0.00 66 1017.1
20260905013932 80 263 0.0 0.0 0.00 0.00 0.00 66 1017.1
20260905013833 80 263 0.0 0.0 0.00 0.00 0.00 66 1017.1
20260905013731 80 263 0.0 0.0 0.00 0.00 0.00 66 1017.1
20260905013631 80 263 0.0 0.0 0.00 0.00 0.00 66 1017.1
20260905013528 80 263 0.0 0.0 0.00 0.00 0.00 66 1017.0
20260905013429 80 263 0.0 0.0 0.00 0.00 0.00 66 1017.1
20260905013326 80 263 0.0 0.0 0.00 0.00 0.00 66 1017.0
20260905013223 80 262 0.0 0.0 0.00 0.00 0.00 66 1017.1
20260905013125 80 263 0.0 0.0 0.00 0.00 0.00 66 1017.1
20260905013023 80 263 0.0 0.0 0.00 0.00 0.00 66 1017.1
20260905012923 80 263 0.0 0.0 0.00 0.00 0.00 66 1017.1
20260905012823 80 263 0.0 1.0 0.00 0.00 0.00 66 1017.1
20260905012722 80 262 0.0 1.0 0.00 0.00 0.00 66 1017.1
20260905012620 80 263 0.0 1.0 0.00 0.00 0.00 67 1017.1
20260905012521 80 262 0.0 1.0 0.00 0.00 0.00 67 1017.2
20260905012420 80 262 0.0 1.0 0.00 0.00 0.00 67 1017.2
20260905012319 80 261 0.0 1.0 0.00 0.00 0.00 67 1017.2
20260905012217 79 261 0.0 1.0 0.00 0.00 0.00 68 1017.4
20260905012116 79 261 0.0 1.0 0.00 0.00 0.00 67 1017.4
20260905012015 79 261 0.0 1.0 0.00 0.00 0.00 67 1017.5
20260905011916 79 261 0.0 1.0 0.00 0.00 0.00 68 1017.4
20260905011813 79 261 0.0 1.0 0.00 0.00 0.00 69 1017.4
20260905011711 79 261 0.0 1.0 0.00 0.00 0.00 69 1017.4
20260905011611 79 263 0.0 1.0 0.00 0.00 0.00 69 1017.4
20260905011511 79 271 0.0 0.0 0.00 0.00 0.00 70 1017.4
20260905011411 79 272 0.0 0.0 0.00 0.00 0.00 70 1017.4
20260905011312 79 271 0.0 0.0 0.00 0.00 0.00 71 1017.4
20260905011210 79 272 0.0 0.0 0.00 0.00 0.00 71 1017.4
20260905011111 79 272 0.0 0.0 0.00 0.00 0.00 71 1017.4
20260905011009 79 272 0.0 0.0 0.00 0.00 0.00 71 1017.4
20260905010908 79 272 0.0 0.0 0.00 0.00 0.00 71 1017.4
20260905010808 80 272 0.0 0.0 0.00 0.00 0.00 71 1017.4
20260905010705 80 272 0.0 0.0 0.00 0.00 0.00 71 1017.4
20260905010603 79 272 0.0 0.0 0.00 0.00 0.00 71 1017.3
20260905010502 80 272 0.0 0.0 0.00 0.00 0.00 71 1017.3
20260905010403 80 261 0.0 0.0 0.00 0.00 0.00 71 1017.4
20260905010301 80 268 0.0 0.0 0.00 0.00 0.00 72 1017.4
20260905010201 80 269 0.0 1.0 0.00 0.00 0.00 72 1017.4
20260905010000 80 270 0.0 2.0 0.00 0.00 0.00 72 1017.4
20260905005901 80 270 0.0 2.0 0.00 0.00 0.00 72 1017.4
20260905005758 80 271 0.0 2.0 0.00 0.00 0.00 72 1017.4
20260905005658 80 271 0.0 2.0 0.00 0.00 0.00 72 1017.5
20260905005558 80 271 0.0 2.0 0.00 0.00 0.00 72 1017.5
20260905005455 80 271 0.0 2.0 0.00 0.00 0.00 71 1017.6
20260905005355 80 271 0.0 2.0 0.00 0.00 0.00 70 1017.7
20260905005253 80 271 0.0 2.0 0.00 0.00 0.00 71 1017.7
20260905005153 80 269 0.0 2.0 0.00 0.00 0.00 71 1017.7
20260905005051 80 269 0.0 2.0 0.00 0.00 0.00 72 1017.7
20260905004948 80 268 0.0 0.0 0.00 0.00 0.00 72 1017.6
20260905004846 80 269 0.0 0.0 0.00 0.00 0.00 72 1017.6
20260905004745 80 270 0.0 0.0 0.00 0.00 0.00 72 1017.6
20260905004643 80 269 0.0 0.0 0.00 0.00 0.00 72 1017.7
20260905004543 80 270 0.0 0.0 0.00 0.00 0.00 72 1017.6
20260905004439 80 270 0.0 0.0 0.00 0.00 0.00 72 1017.6
20260905004341 80 270 0.0 0.0 0.00 0.00 0.00 72 1017.6
20260905004242 80 270 0.0 0.0 0.00 0.00 0.00 72 1017.6
20260905004140 80 270 0.0 1.0 0.00 0.00 0.00 71 1017.6
20260905004040 80 270 0.0 3.0 0.00 0.00 0.00 71 1017.5
20260905003940 80 270 0.0 3.0 0.00 0.00 0.00 71 1017.6
20260905003840 80 270 0.0 3.0 0.00 0.00 0.00 71 1017.6
20260905003739 80 270 0.0 3.0 0.00 0.00 0.00 70 1017.6
20260905003639 80 271 0.0 3.0 0.00 0.00 0.00 71 1017.6
20260905003538 80 271 0.0 3.0 0.00 0.00 0.00 70 1017.6
20260905003435 80 271 0.0 3.0 0.00 0.00 0.00 70 1017.7
20260905003327 80 271 0.0 3.0 0.00 0.00 0.00 70 1017.6
20260905003226 80 273 0.0 3.0 0.00 0.00 0.00 70 1017.6
20260905003124 80 273 0.0 0.0 0.00 0.00 0.00 70 1017.6
20260905003025 80 273 0.0 1.0 0.00 0.00 0.00 70 1017.7
20260905002925 80 273 0.0 2.0 0.00 0.00 0.00 70 1017.6
20260905002825 80 273 0.0 3.0 0.00 0.00 0.00 70 1017.6
20260905002722 80 273 0.0 3.0 0.00 0.00 0.00 70 1017.6
20260905002624 80 273 0.0 3.0 0.00 0.00 0.00 70 1017.6
20260905002520 80 273 1.0 4.0 0.00 0.00 0.00 70 1017.7
20260905002418 80 273 1.0 4.0 0.00 0.00 0.00 69 1017.7
20260905002318 80 273 1.0 4.0 0.00 0.00 0.00 69 1017.7
20260905002218 80 273 1.0 4.0 0.00 0.00 0.00 70 1017.8
20260905002116 80 273 1.0 4.0 0.00 0.00 0.00 69 1017.7
20260905002016 80 273 1.0 4.0 0.00 0.00 0.00 69 1017.7
20260905001912 80 273 1.0 4.0 0.00 0.00 0.00 69 1017.6
20260905001802 80 275 1.0 4.0 0.00 0.00 0.00 69 1017.6
20260905001703 80 276 0.0 4.0 0.00 0.00 0.00 69 1017.5
20260905001603 80 275 0.0 4.0 0.00 0.00 0.00 69 1017.5
20260905001504 80 280 0.0 4.0 0.00 0.00 0.00 69 1017.6
20260905001400 80 280 0.0 4.0 0.00 0.00 0.00 69 1017.7
20260905001256 80 279 0.0 4.0 0.00 0.00 0.00 69 1017.6
20260905001155 80 278 0.0 4.0 0.00 0.00 0.00 69 1017.6
20260905001055 80 276 0.0 4.0 0.00 0.00 0.00 70 1017.6
20260905000954 80 275 0.0 4.0 0.00 0.00 0.00 70 1017.6
20260905000855 80 272 0.0 2.0 0.00 0.00 0.00 70 1017.5
20260905000753 80 272 0.0 2.0 0.00 0.00 0.00 70 1017.5
20260905000653 80 271 0.0 2.0 0.00 0.00 0.00 70 1017.5
20260905000552 80 271 0.0 2.0 0.00 0.00 0.00 70 1017.5
20260905000454 80 271 0.0 2.0 0.00 0.00 0.00 70 1017.5
20260905000349 80 273 0.0 3.0 0.00 0.00 0.00 70 1017.5
20260905000241 80 273 0.0 3.0 0.00 0.00 0.00 70 1017.6
20260905000139 80 271 1.0 4.0 0.00 0.00 0.00 70 1017.5
20260905000040 80 273 1.0 4.0 0.00 0.00 0.00 70 1017.5
20260904235938 80 273 1.0 4.0 0.00 0.00 0.00 70 1017.6
20260904235838 80 273 1.0 4.0 0.00 0.00 0.00 70 1017.5
20260904235736 80 273 1.0 4.0 0.00 0.00 0.00 70 1017.6
20260904235633 80 273 1.0 4.0 0.00 0.00 0.00 70 1017.5
20260904235532 80 273 1.0 4.0 0.00 0.00 0.00 70 1017.6
20260904235433 80 278 1.0 4.0 0.00 0.00 0.00 71 1017.6
20260904235333 80 280 0.0 4.0 0.00 0.00 0.00 71 1017.5
20260904235229 80 282 0.0 4.0 0.00 0.00 0.00 71 1017.6
20260904235126 80 282 0.0 4.0 0.00 0.00 0.00 71 1017.5
20260904235027 80 273 0.0 4.0 0.00 0.00 0.00 72 1017.5
20260904234926 80 272 0.0 4.0 0.00 0.00 0.00 72 1017.5
20260904234827 80 272 0.0 1.0 0.00 0.00 0.00 72 1017.6
20260904234720 80 272 0.0 1.0 0.00 0.00 0.00 72 1017.6
20260904234620 80 273 0.0 1.0 0.00 0.00 0.00 73 1017.6
20260904234518 80 300 0.0 0.0 0.00 0.00 0.00 73 1017.7
20260904234419 80 300 0.0 0.0 0.00 0.00 0.00 73 1017.6
20260904234317 80 301 0.0 0.0 0.00 0.00 0.00 73 1017.6
20260904234215 80 301 0.0 0.0 0.00 0.00 0.00 74 1017.6
20260904234114 80 301 0.0 0.0 0.00 0.00 0.00 74 1017.6
20260904234014 80 301 0.0 0.0 0.00 0.00 0.00 74 1017.6
20260904233913 80 301 0.0 0.0 0.00 0.00 0.00 75 1017.7
20260904233810 80 303 0.0 0.0 0.00 0.00 0.00 74 1017.7
20260904233705 80 303 0.0 0.0 0.00 0.00 0.00 74 1017.7
20260904233606 80 304 1.0 4.0 0.00 0.00 0.00 75 1017.7
20260904233505 80 304 1.0 4.0 0.00 0.00 0.00 74 1017.7
20260904233404 80 304 1.0 4.0 0.00 0.00 0.00 74 1017.6
20260904233305 80 304 2.0 4.0 0.00 0.00 0.00 74 1017.7
20260904233159 80 304 2.0 4.0 0.00 0.00 0.00 73 1017.7
20260904233057 80 304 2.0 5.0 0.00 0.00 0.00 74 1017.7
20260904232959 80 304 2.0 5.0 0.00 0.00 0.00 73 1017.7
20260904232857 80 304 3.0 5.0 0.00 0.00 0.00 73 1017.7
20260904232755 80 305 3.0 5.0 0.00 0.00 0.00 74 1017.6
20260904232655 80 306 3.0 5.0 0.00 0.00 0.00 74 1017.7
20260904232552 80 306 4.0 5.0 0.00 0.00 0.00 73 1017.7
20260904232454 80 306 4.0 7.0 0.00 0.00 0.00 73 1017.7
20260904232351 80 309 4.0 7.0 0.00 0.00 0.00 73 1017.7
20260904232249 80 309 4.0 7.0 0.00 0.00 0.00 73 1017.7
20260904232148 80 309 4.0 7.0 0.00 0.00 0.00 73 1017.6
20260904232047 80 309 4.0 7.0 0.00 0.00 0.00 73 1017.6
20260904231946 80 310 4.0 7.0 0.00 0.00 0.00 72 1017.6
20260904231845 80 309 4.0 7.0 0.00 0.00 0.00 73 1017.6
20260904231743 80 309 4.0 7.0 0.00 0.00 0.00 73 1017.6
20260904231636 80 298 4.0 7.0 0.00 0.00 0.00 72 1017.7
20260904231533 80 325 3.0 7.0 0.00 0.00 0.00 72 1017.7
20260904231433 80 301 3.0 6.0 0.00 0.00 0.00 72 1017.6
20260904231334 80 277 3.0 6.0 0.00 0.00 0.00 72 1017.6
20260904231233 80 277 3.0 6.0 0.00 0.00 0.00 71 1017.5
20260904231128 80 277 3.0 6.0 0.00 0.00 0.00 71 1017.4
20260904231026 80 276 3.0 6.0 0.00 0.00 0.00 72 1017.4
20260904230926 80 274 3.0 4.0 0.00 0.00 0.00 72 1017.4
20260904230826 80 273 3.0 4.0 0.00 0.00 0.00 72 1017.5
20260904230726 80 295 3.0 4.0 0.00 0.00 0.00 73 1017.4
20260904230626 80 304 3.0 4.0 0.00 0.00 0.00 73 1017.4
20260904230525 80 306 3.0 4.0 0.00 0.00 0.00 73 1017.4
20260904230422 80 307 3.0 4.0 0.00 0.00 0.00 73 1017.3
20260904230323 80 308 3.0 4.0 0.00 0.00 0.00 73 1017.3
20260904230220 80 308 3.0 4.0 0.00 0.00 0.00 73 1017.4
20260904230114 80 308 3.0 4.0 0.00 0.00 0.00 74 1017.3
20260904230014 80 308 3.0 4.0 0.00 0.00 0.00 73 1017.3
20260904225913 80 309 2.0 4.0 0.00 0.00 0.00 73 1017.3
20260904225813 80 309 2.0 4.0 0.00 0.00 0.00 73 1017.3
20260904225710 80 310 2.0 4.0 0.00 0.00 0.00 73 1017.4
20260904225604 80 310 2.0 4.0 0.00 0.00 0.00 73 1017.3
20260904225503 80 310 2.0 4.0 0.00 0.00 0.00 74 1017.5
20260904225404 80 310 2.0 4.0 0.00 0.00 0.00 74 1017.5
20260904225306 80 309 2.0 4.0 0.00 0.00 0.00 75 1017.4
20260904225205 80 309 2.0 4.0 0.00 0.00 0.00 74 1017.4
20260904225058 80 309 2.0 4.0 0.00 0.00 0.00 74 1017.3
20260904224958 80 309 2.0 4.0 0.00 0.00 0.00 75 1017.1
20260904224859 80 309 2.0 4.0 0.00 0.00 0.00 76 1017.3
20260904224758 79 305 3.0 4.0 0.00 0.00 0.00 76 1017.3
20260904224658 79 305 2.0 4.0 0.00 0.00 0.00 76 1017.3
20260904224550 79 305 2.0 4.0 0.00 0.00 0.00 77 1017.3
20260904224451 79 304 2.0 4.0 0.00 0.00 0.00 76 1017.4
20260904224351 79 303 2.0 4.0 0.00 0.00 0.00 75 1017.3
20260904224251 79 304 2.0 4.0 0.00 0.00 0.00 74 1017.3
20260904224149 79 305 2.0 4.0 0.00 0.00 0.00 74 1017.3
20260904224046 79 252 3.0 7.0 0.00 0.00 0.00 74 1017.3
20260904223947 79 306 3.0 7.0 0.00 0.00 0.00 74 1017.3
20260904223846 78 306 3.0 8.0 0.00 0.00 0.00 74 1017.3
20260904223745 78 306 3.0 8.0 0.00 0.00 0.00 74 1017.3
20260904223643 78 292 4.0 8.0 0.00 0.00 0.00 74 1017.4
20260904223543 78 292 4.0 8.0 0.00 0.00 0.00 76 1017.3
20260904223440 78 292 4.0 8.0 0.00 0.00 0.00 76 1017.4
20260904223340 78 292 4.0 8.0 0.00 0.00 0.00 75 1017.4
20260904223240 78 296 4.0 8.0 0.00 0.00 0.00 76 1017.5
20260904223137 78 311 4.0 8.0 0.00 0.00 0.00 76 1017.6
20260904223027 78 309 4.0 8.0 0.00 0.00 0.00 76 1017.6
20260904222926 78 298 4.0 8.0 0.00 0.00 0.00 77 1017.5
20260904222827 78 299 4.0 8.0 0.00 0.00 0.00 78 1017.5
20260904222728 78 282 4.0 7.0 0.00 0.00 0.00 79 1017.5
20260904222627 78 282 3.0 7.0 0.00 0.00 0.00 79 1017.4
20260904222522 78 276 3.0 7.0 0.00 0.00 0.00 78 1017.5
20260904222421 78 247 4.0 7.0 0.00 0.00 0.00 78 1017.6
20260904222320 78 252 3.0 7.0 0.00 0.00 0.00 78 1017.6
20260904222221 79 259 3.0 7.0 0.00 0.00 0.00 77 1017.5
20260904222121 79 302 3.0 6.0 0.00 0.00 0.00 78 1017.6
20260904222015 79 318 3.0 6.0 0.00 0.00 0.00 77 1017.7
20260904221914 79 315 3.0 9.0 0.00 0.00 0.00 76 1017.6
20260904221815 79 317 3.0 9.0 0.00 0.00 0.00 76 1017.6
20260904221713 80 317 3.0 12.0 0.00 0.00 0.00 76 1017.6
20260904221614 80 311 5.0 12.0 0.00 0.00 0.00 76 1017.8
20260904221506 80 310 5.0 13.0 0.00 0.00 0.00 75 1017.8
20260904221406 80 24 6.0 18.0 0.00 0.00 0.00 75 1017.8
20260904221306 80 329 6.0 18.0 0.00 0.00 0.00 75 1017.9
20260904221208 81 325 6.0 18.0 0.00 0.00 0.00 75 1017.9
20260904221105 81 5 6.0 18.0 0.00 0.00 0.00 75 1018.0
20260904221001 81 317 5.0 18.0 0.00 0.00 0.00 74 1018.1
20260904220900 82 329 5.0 18.0 0.00 0.00 0.00 73 1018.1
20260904220800 82 337 4.0 18.0 0.00 0.00 0.00 73 1018.0
20260904220701 83 346 3.0 18.0 0.00 0.00 0.00 73 1017.9
20260904220558 83 313 2.0 18.0 0.00 0.00 0.00 74 1018.0
20260904220455 84 350 1.0 18.0 0.00 0.00 0.00 76 1017.9
20260904220356 84 344 0.0 9.0 0.00 0.00 0.00 76 1017.9
20260904220255 84 14 0.0 7.0 0.00 0.00 0.00 74 1017.8